GEFSMW_500_meanwind_012.txt.gz
Wind_Speed
34 34 32 33 34 35 35 36 38 39 41 43 44 45 46 46 44 43 42 41 40 39 37 35 35 35 36 37 39 40 41 40 41 40 37 34 34 33 33 33 33 32 33
38 37 37 36 36 36 37 39 41 43 45 46 47 48 48 48 48 47 45 43 42 40 39 37 36 36 37 38 40 41 42 42 43 43 42 37 35 37 36 36 35 35 35
36 37 36 36 36 37 39 41 44 45 46 47 48 48 48 48 49 48 46 44 42 39 38 36 34 34 36 38 40 42 42 42 42 43 43 41 37 38 38 37 37 37 37
36 38 39 39 39 41 43 44 45 45 46 46 47 47 47 48 48 46 43 41 39 38 36 33 33 34 36 38 39 41 42 41 40 41 42 42 39 37 35 37 37 37 37
42 43 44 45 47 48 50 51 49 47 45 44 44 44 45 45 45 42 39 38 36 34 33 33 34 36 36 37 39 41 42 42 41 40 40 39 37 35 33 32 34 35 36
50 51 52 53 53 54 55 55 54 54 52 48 43 43 43 42 40 36 34 34 33 33 33 34 36 37 37 38 40 41 41 41 39 37 36 34 33 31 31 31 32 34 36
53 56 58 59 60 60 60 59 58 57 54 53 48 43 42 40 37 35 35 34 34 34 35 37 38 39 39 40 41 40 39 36 34 33 31 31 30 30 32 33 34 36 36
47 51 55 58 60 61 62 61 61 59 57 53 49 45 43 41 39 37 36 36 36 36 38 40 41 41 41 40 39 37 34 32 30 29 29 29 28 30 32 34 36 38 38
40 46 51 55 59 61 62 62 61 59 56 53 50 44 42 41 40 38 38 38 38 39 41 42 41 40 38 36 33 31 29 28 26 26 26 27 28 29 31 33 35 37 38
37 40 44 48 53 56 58 60 61 59 55 52 49 46 41 38 38 37 37 38 39 41 41 39 36 34 33 31 30 28 27 25 24 24 24 25 26 28 30 32 34 35 36
40 43 46 48 50 51 51 49 49 51 49 46 43 41 39 36 34 34 34 36 37 37 34 32 32 31 31 30 29 27 26 24 23 23 23 24 25 26 26 28 31 33 36
42 45 46 46 45 43 40 36 34 36 37 37 36 35 34 33 31 30 31 32 32 31 31 31 31 31 30 30 29 28 26 25 25 24 24 24 24 25 25 24 23 26 29
41 43 42 40 37 32 29 27 28 29 31 31 30 30 29 28 27 28 29 29 30 30 31 31 30 29 29 29 29 29 28 27 26 26 26 27 26 26 25 24 22 21 21
39 40 38 35 29 25 24 25 25 27 28 29 30 29 28 27 27 28 29 29 29 29 29 29 29 29 29 29 29 29 29 28 27 27 28 29 30 29 28 27 25 23 21
36 36 33 28 23 20 19 20 22 22 23 24 26 26 25 26 27 27 28 28 28 29 29 29 28 28 28 28 28 29 29 28 27 27 28 30 30 31 31 31 30 28 26
31 30 27 22 17 16 15 15 17 17 18 20 22 23 25 25 26 26 26 27 29 29 29 28 28 28 28 28 28 28 27 27 27 28 28 29 30 30 31 32 32 32 30
27 25 23 20 16 13 12 13 14 15 17 18 20 22 24 25 25 26 26 27 28 28 28 28 28 28 28 28 27 27 27 26 26 26 26 27 29 30 30 31 32 32 33
23 21 19 17 15 12 11 11 13 14 15 16 18 20 22 23 24 25 27 28 28 28 27 27 27 27 27 26 25 24 24 24 25 26 27 27 28 29 29 30 31 32 33
21 18 17 15 13 11 9 9 9 11 13 14 17 19 20 22 24 25 26 26 25 24 23 22 22 22 21 21 21 21 22 23 24 25 25 26 27 27 28 28 29 30 32
18 15 14 13 12 11 9 8 9 10 11 13 15 18 20 21 21 21 19 18 17 16 16 16 16 17 18 18 19 19 20 20 20 21 22 23 24 25 25 26 27 28 29
16 14 12 11 10 8 8 8 8 9 11 12 14 15 16 16 16 15 15 14 13 12 13 13 14 14 15 16 16 17 18 18 19 19 20 21 22 23 24 24 25 25 27
15 13 11 10 8 7 6 6 7 7 8 9 9 9 8 7 7 8 9 9 9 10 10 11 12 13 14 15 16 16 17 18 19 20 22 23 24 25 26 27 28 28 28
15 13 12 10 9 8 7 7 7 8 8 8 7 6 4 3 4 5 7 7 8 9 10 11 13 13 13 14 15 17 18 19 20 22 24 26 27 28 30 31 31 32 32
18 16 15 14 13 12 11 10 10 9 9 9 8 6 5 5 5 6 7 8 9 11 12 13 13 13 14 15 16 18 19 21 23 25 27 28 29 30 31 31 31 31 32
21 20 18 17 16 15 14 13 12 11 11 10 9 9 8 8 8 9 10 11 12 13 13 13 13 14 15 16 17 19 21 22 24 25 26 26 26 26 27 27 28 29 29
24 23 22 20 18 17 16 16 15 13 12 12 12 12 12 12 12 13 13 14 14 14 14 14 15 16 16 17 18 19 21 22 23 24 24 23 23 23 24 24 25 25 26

GEFSMW_500_meanwind_018.txt.gz
Wind_Speed
41 42 43 44 44 43 43 44 44 45 46 47 47 48 47 47 48 49 50 50 51 52 52 52 51 49 45 40 38 37 36 36 36 36 34 33 33 33 33 34 34 34 33
38 38 40 41 42 42 43 44 44 46 48 49 50 51 51 50 50 50 51 53 54 56 57 56 54 52 48 44 40 40 39 38 37 36 35 33 34 35 34 35 35 35 35
36 36 38 40 41 42 43 45 47 48 49 50 51 51 52 51 51 53 54 54 54 55 57 57 56 54 49 45 43 41 40 38 37 36 35 34 34 35 35 35 37 36 36
39 39 40 42 43 44 45 46 47 48 49 51 52 52 53 54 54 56 57 55 54 54 55 53 53 53 49 45 42 39 37 36 35 35 35 36 36 35 33 33 35 36 35
42 43 44 44 45 45 46 47 48 50 51 53 55 56 57 58 59 59 59 57 55 54 49 46 46 44 44 41 38 36 35 34 34 34 35 36 36 35 32 29 31 33 33
37 38 40 41 43 44 45 47 49 51 53 55 57 59 60 61 62 62 61 58 56 52 47 43 39 38 38 36 34 34 34 33 34 35 35 35 34 32 30 27 27 30 31
28 29 31 33 35 38 40 43 46 49 52 54 56 58 60 62 63 62 60 58 54 48 43 40 38 36 34 32 33 33 33 33 34 35 35 34 32 30 28 26 26 28 30
25 26 28 30 32 35 37 40 43 46 49 52 55 57 58 60 61 60 58 55 50 44 40 39 37 35 32 32 32 33 33 33 34 33 32 31 29 28 27 27 27 27 29
28 29 30 31 33 34 36 39 42 46 49 52 55 56 57 58 58 56 54 51 46 43 40 38 38 37 34 33 33 33 33 33 32 30 29 28 27 27 27 27 28 28 29
32 33 33 34 35 37 39 41 44 47 50 52 54 55 55 54 52 50 48 46 43 41 39 36 38 38 35 33 33 33 32 30 29 28 27 27 27 27 27 28 29 29 30
34 35 36 36 37 39 40 42 45 47 49 51 50 49 48 48 45 44 42 41 39 37 35 33 34 34 33 32 31 30 29 28 28 28 28 28 28 29 29 29 30 30 30
35 36 36 37 38 39 40 41 43 44 44 43 41 40 41 40 39 38 37 36 34 33 32 31 31 31 30 29 28 28 27 27 28 29 29 30 30 31 31 32 32 33 32
36 35 35 36 37 37 37 38 38 38 38 35 32 31 32 33 34 34 34 33 32 31 31 31 30 28 27 26 26 27 27 27 28 29 30 31 32 32 33 34 35 35 35
35 34 34 34 34 34 34 33 33 33 32 28 25 22 22 26 26 28 29 29 29 29 29 27 26 24 24 24 25 25 26 27 28 29 31 31 32 33 34 35 36 36 37
32 32 32 32 31 30 29 29 28 27 25 21 19 17 15 16 16 17 18 19 22 23 22 21 21 21 22 23 24 25 26 26 28 29 30 31 32 33 34 35 36 36 36
30 30 30 29 28 27 25 24 23 21 20 18 14 13 12 12 12 12 13 13 15 16 17 18 19 21 22 23 24 24 25 26 27 29 30 31 32 33 34 35 35 35 35
29 28 27 27 26 24 21 20 19 18 16 15 14 13 12 11 11 11 12 13 14 15 16 18 19 20 21 22 23 23 24 26 27 28 29 30 31 32 33 33 34 34 34
28 27 26 25 23 21 19 17 16 15 15 14 13 12 11 11 11 12 13 14 15 17 18 19 20 20 20 21 21 22 23 24 25 26 27 29 30 31 31 31 32 33 33
28 27 25 24 22 19 17 16 14 13 13 13 12 12 12 12 13 14 15 16 17 18 18 18 18 17 16 17 17 18 19 20 21 21 22 23 24 26 27 28 29 30 31
28 27 25 24 21 18 16 14 13 12 11 11 11 12 12 13 14 15 16 16 17 16 15 14 13 13 13 13 13 14 15 16 16 18 19 20 22 24 25 26 28 29 29
29 27 25 24 21 18 15 13 11 10 10 10 11 11 12 12 12 13 13 13 13 12 11 11 11 11 11 11 11 12 13 14 15 16 18 19 21 23 24 26 28 29 30
29 27 26 25 22 18 15 12 11 10 9 9 9 10 9 9 9 8 8 8 8 8 9 9 10 10 10 11 11 11 12 13 14 15 16 18 20 22 24 25 27 28 30
31 28 26 26 24 21 18 15 13 12 11 10 10 9 8 8 7 7 7 7 7 8 8 9 9 10 10 11 11 11 12 13 14 16 18 19 20 22 23 24 25 27 28
31 29 26 27 27 24 21 19 17 15 14 12 11 10 9 8 8 7 8 8 8 9 9 9 10 10 10 11 12 12 13 14 16 17 18 19 20 21 22 23 23 23 24
32 30 28 28 29 28 25 22 20 18 17 15 13 12 12 11 10 10 10 10 10 10 11 11 11 12 12 13 13 13 14 15 16 17 18 19 21 21 22 22 23 23 23
32 31 29 29 31 31 29 26 23 21 20 18 16 15 14 13 13 13 13 13 13 13 13 13 13 14 14 14 14 14 14 14 15 15 17 18 19 21 22 22 23 23 23

GEFSMW_500_meanwind_024.txt.gz
Wind_Speed
43 43 41 41 44 45 45 44 45 46 46 44 43 42 43 44 45 46 46 47 48 49 49 49 48 48 48 48 48 49 50 51 51 51 48 44 42 40 38 36 35 36 35
40 39 39 39 39 40 40 40 40 41 42 42 42 42 43 44 46 47 47 48 50 51 52 49 48 49 48 48 48 50 51 51 51 50 46 42 41 41 38 37 35 35 35
37 38 39 39 38 39 39 40 40 41 42 43 43 44 45 46 47 49 50 50 52 53 52 50 50 50 50 50 50 50 51 50 48 47 44 43 42 41 39 39 37 35 35
35 36 38 39 41 41 42 43 44 45 46 47 48 49 49 50 50 51 52 53 54 54 53 53 53 53 53 52 51 50 50 48 46 45 44 42 41 40 39 38 38 35 35
36 37 37 38 39 40 41 43 44 45 47 48 49 50 51 51 51 52 53 54 55 55 56 55 55 54 53 52 51 49 48 46 43 41 42 42 41 40 39 36 36 35 34
38 37 36 36 36 37 37 38 39 40 41 43 45 46 47 49 50 51 52 53 54 54 55 55 54 54 52 51 50 48 45 43 40 39 39 40 41 40 39 35 34 34 33
38 36 34 33 34 34 35 35 35 36 37 39 41 43 45 47 49 51 53 54 55 55 55 55 55 54 52 50 48 46 43 41 38 36 37 39 39 38 36 33 32 32 31
39 39 37 36 36 36 37 37 37 37 38 40 42 44 46 49 51 53 55 56 57 57 56 56 55 54 52 49 47 44 40 37 36 35 35 36 36 34 32 32 32 31 30
42 42 42 41 41 41 41 41 41 41 42 43 44 46 48 50 52 54 55 55 56 57 56 55 53 51 49 47 45 41 37 35 34 34 34 35 33 31 31 30 30 30 29
43 43 44 44 44 44 44 44 44 44 44 45 46 47 48 50 51 52 53 54 55 55 54 53 50 46 44 43 41 38 36 34 33 33 33 32 29 28 28 29 29 28 28
42 44 44 44 45 44 45 45 45 45 45 45 46 46 47 47 47 48 48 49 50 50 49 45 42 41 40 39 38 37 35 33 32 32 31 30 28 27 27 28 28 28 28
42 43 43 43 43 43 43 43 43 43 43 43 43 43 42 42 42 42 42 41 40 39 39 37 36 35 35 34 33 32 31 32 31 31 30 28 26 26 26 27 28 29 30
41 42 41 41 41 40 40 40 39 39 39 39 39 38 37 36 35 34 32 29 28 28 28 28 29 29 30 31 31 29 29 29 30 29 27 25 25 25 25 26 27 29 30
40 41 40 39 39 38 38 37 36 35 35 35 34 32 32 31 29 28 25 22 21 20 21 22 22 23 25 27 27 27 27 28 27 25 23 22 22 24 25 26 27 28 30
41 41 41 40 38 37 36 35 34 33 32 31 30 29 28 26 24 22 19 18 15 13 13 16 18 21 23 23 24 24 24 23 21 21 20 20 21 22 23 25 27 28 29
41 41 41 40 39 37 36 34 32 31 30 29 27 26 25 22 20 17 14 12 10 8 5 6 10 13 15 16 17 18 18 18 18 18 18 20 21 22 23 24 25 27 28
40 40 40 40 39 38 36 34 32 30 29 28 25 23 22 19 17 15 12 10 8 6 4 4 6 8 10 11 13 14 15 16 17 17 18 19 20 21 22 22 24 25 26
42 41 41 40 40 39 37 34 31 29 28 27 24 21 19 17 16 14 11 10 8 7 6 6 7 8 9 10 11 12 13 14 15 16 16 17 17 17 18 19 20 22 23
44 43 42 41 40 38 37 34 31 29 28 26 23 20 18 17 15 13 12 11 10 9 8 8 8 9 9 10 10 10 10 11 11 11 12 13 13 14 15 16 18 19 21
45 44 43 41 39 38 36 35 32 29 28 26 23 19 17 16 15 13 12 11 11 11 10 9 9 8 7 7 7 8 8 8 7 8 9 10 11 12 14 15 17 20 22
46 45 44 42 39 37 36 34 32 29 27 25 22 19 17 15 15 13 12 11 11 10 10 9 7 6 5 5 5 5 4 5 6 7 8 9 10 12 14 16 18 20 22
48 46 44 42 39 37 36 34 32 29 27 25 23 20 18 16 14 12 11 11 10 9 8 7 5 4 4 4 4 4 4 5 6 7 8 10 12 14 15 16 18 20 22
48 46 44 41 40 37 35 34 32 30 28 27 24 21 19 17 15 13 12 11 10 9 8 6 5 4 4 4 4 5 6 6 8 9 10 11 12 13 14 16 18 20 22
50 47 45 42 41 39 36 35 32 31 30 29 27 24 21 18 17 15 13 12 10 9 8 7 6 6 6 6 6 7 8 9 10 11 11 12 12 13 14 16 18 20 23
54 50 49 46 43 42 39 35 33 31 32 32 30 27 24 21 19 17 15 13 11 10 9 8 8 8 8 9 9 9 10 11 12 12 12 12 12 12 13 15 17 19 22
58 53 50 47 44 43 40 36 34 33 33 34 33 30 27 24 22 20 17 15 14 13 12 11 11 11 12 12 12 13 13 13 13 13 13 12 11 11 12 14 16 18 20

GEFSMW_500_meanwind_030.txt.gz
Wind_Speed
33 32 33 33 34 35 34 35 35 36 37 37 35 34 34 35 36 37 39 40 39 39 40 40 40 39 39 41 39 38 38 37 37 36 35 35 35 36 37 39 39 37 36
30 30 32 32 34 35 37 38 38 39 39 37 36 36 36 37 38 39 40 41 41 41 42 42 41 41 41 41 40 39 37 35 35 36 37 35 35 36 38 39 38 35 33
27 30 32 32 35 36 39 40 40 40 40 39 39 40 40 39 40 40 41 42 42 43 44 44 44 44 44 43 42 40 37 37 36 37 38 37 35 35 36 38 36 33 32
27 29 31 33 34 35 37 38 38 39 39 39 39 40 39 39 39 39 38 39 40 40 41 41 41 42 42 41 41 40 40 39 38 38 39 39 38 37 35 35 36 34 32
26 28 29 30 31 33 35 37 38 39 39 39 39 39 39 39 38 37 36 35 35 36 37 38 38 39 40 41 41 42 42 41 41 41 41 41 41 39 37 35 35 33 32
26 27 28 29 31 32 34 35 37 38 39 40 41 41 41 40 39 38 37 37 36 37 38 39 40 41 42 43 44 44 44 44 44 43 43 43 42 41 39 35 34 32 33
26 27 28 29 30 30 32 34 36 38 39 40 41 42 43 43 43 42 42 41 40 41 41 42 43 44 45 45 46 46 46 46 46 45 45 44 43 40 37 34 33 31 30
26 26 28 30 32 34 36 36 37 38 39 39 40 41 42 44 44 44 44 44 44 44 44 45 46 46 46 47 47 46 46 46 46 46 45 43 41 39 35 32 30 30 29
27 28 30 33 34 36 38 39 39 39 40 40 40 40 41 42 43 44 44 45 45 46 46 46 47 47 47 47 46 46 45 46 45 44 42 40 38 35 32 29 28 29 30
30 31 32 34 35 37 39 40 40 41 41 41 40 39 39 39 40 41 42 43 44 45 45 45 45 46 45 44 43 42 42 42 41 39 37 35 33 31 28 27 26 26 27
34 35 35 36 36 36 38 39 40 40 40 40 40 39 37 36 36 37 38 40 40 41 42 42 43 42 41 39 38 37 37 35 34 33 32 30 28 28 26 26 27 27 26
37 38 39 39 37 36 37 38 39 39 39 39 39 38 36 35 35 35 35 35 36 37 37 38 37 36 35 34 34 32 31 30 30 29 27 26 26 25 25 26 26 26 25
41 42 42 42 40 39 38 39 40 40 39 38 38 37 36 35 34 33 33 33 33 33 33 32 31 30 29 29 27 27 26 26 26 26 25 25 24 25 25 25 24 24 23
44 45 45 45 45 43 42 41 40 40 39 38 37 36 35 34 32 32 31 31 30 29 28 27 26 25 24 22 19 20 22 24 24 25 25 24 25 25 24 24 23 23 22
47 48 48 48 48 47 46 43 41 40 39 37 36 34 34 33 31 30 30 28 26 25 24 22 21 20 18 17 17 17 19 21 22 23 23 24 24 24 23 22 21 20 19
50 50 50 50 50 50 48 46 43 41 39 37 36 33 32 32 30 29 28 26 24 22 21 19 18 16 14 14 16 17 19 20 21 22 23 23 23 22 20 18 18 18 17
54 54 53 52 52 52 50 48 45 42 40 38 36 34 32 31 29 28 26 24 22 21 20 18 16 14 13 12 13 13 14 16 18 18 19 18 16 15 14 14 14 15 15
59 59 57 56 55 55 53 51 48 44 42 39 37 35 32 30 28 27 25 23 21 20 19 17 15 13 12 12 12 12 12 12 12 13 12 12 11 11 11 11 11 11 12
63 63 63 62 60 58 57 54 51 47 43 40 38 36 33 30 28 26 24 22 21 19 18 17 15 13 13 12 11 10 10 9 8 8 8 9 9 8 8 8 9 10 10
67 67 67 66 65 62 60 57 54 50 46 42 39 37 34 32 29 26 24 22 20 19 17 16 14 13 11 10 8 7 7 8 8 7 7 6 6 6 6 7 7 8 8
72 73 73 71 69 67 63 61 57 54 49 44 41 37 35 33 30 27 25 22 20 19 17 15 13 11 9 7 7 7 8 8 8 7 7 6 6 6 6 6 6 6 7
77 76 74 72 70 68 66 63 59 55 51 47 42 38 36 34 32 29 26 23 21 19 16 15 13 11 9 9 9 9 9 8 8 7 7 6 6 5 5 5 5 6 7
75 72 70 67 64 62 60 58 57 55 52 49 45 41 37 34 32 31 28 24 22 19 17 15 13 12 11 11 11 10 10 9 8 7 6 6 6 5 5 5 5 6 7
63 60 56 53 51 51 51 51 51 52 52 51 48 45 40 37 34 33 30 26 23 20 18 16 15 14 14 13 13 12 11 10 9 8 7 7 6 6 6 6 5 5 6
47 45 44 43 43 42 42 43 45 48 50 50 48 46 41 39 36 34 32 28 25 22 20 19 18 17 16 15 14 14 12 11 10 9 8 8 8 8 7 6 5 5 6
40 39 39 39 38 38 38 38 39 42 46 48 48 46 42 39 38 36 34 31 27 25 22 21 20 19 17 16 15 14 13 12 11 10 9 9 9 9 8 7 6 5 6

GEFSMW_500_meanwind_036.txt.gz
Wind_Speed
29 30 30 30 29 30 30 31 32 31 31 32 32 33 33 34 34 35 36 37 37 39 40 41 42 43 43 43 44 44 43 42 41 39 37 35 35 33 34 35 36 36 35
31 31 30 29 30 30 31 32 32 33 33 33 34 34 34 34 35 35 36 37 37 38 40 41 42 42 42 42 43 43 43 42 41 39 36 33 32 30 30 32 34 35 35
31 31 30 29 29 29 30 32 33 34 34 35 36 36 36 35 35 35 36 37 38 38 39 40 40 41 41 40 40 40 40 38 36 35 34 31 28 28 28 30 31 32 33
30 30 28 27 28 29 31 32 33 33 34 34 33 33 34 34 35 35 36 37 38 38 38 39 39 40 40 39 37 36 35 34 32 32 32 31 29 28 28 29 31 31 31
26 26 25 26 28 29 31 31 31 31 30 29 29 29 30 32 34 35 36 37 38 38 38 39 39 39 39 38 37 36 35 33 32 32 33 33 32 31 30 30 31 32 32
24 24 24 26 28 29 30 30 30 29 27 27 28 28 30 32 33 34 35 37 37 38 38 39 39 40 40 40 40 39 38 37 36 35 35 35 35 34 33 33 34 34 33
22 23 24 25 27 29 30 29 28 28 28 29 30 30 31 32 33 34 35 36 36 37 37 38 39 40 41 41 42 42 41 40 39 38 38 37 37 37 36 36 36 36 35
22 22 24 26 28 29 30 29 29 30 30 31 32 33 34 35 35 35 36 36 36 36 36 36 37 39 40 41 42 42 42 42 41 41 40 39 39 38 37 36 36 36 36
23 24 26 28 29 30 30 31 32 32 33 34 35 36 36 36 37 37 37 37 36 36 36 35 35 36 37 39 40 41 42 42 42 42 41 40 39 38 37 36 36 35 34
26 27 29 30 32 32 33 34 35 35 36 37 37 38 38 37 37 37 37 37 36 36 36 35 34 34 34 35 37 38 39 40 40 40 39 38 37 36 36 34 33 32 31
30 32 33 35 36 37 38 39 39 40 40 39 39 39 39 39 39 38 38 37 37 37 36 35 34 33 32 32 33 34 35 36 36 36 35 35 34 33 32 31 29 28 27
35 36 38 39 41 43 44 44 44 44 44 43 42 42 41 41 40 40 39 37 37 37 36 35 33 31 30 30 30 30 31 31 31 32 32 31 31 30 28 27 26 25 25
40 41 42 44 46 48 49 50 50 50 49 48 46 45 45 44 42 41 39 38 37 37 36 34 32 30 28 27 26 26 26 27 27 27 27 27 26 26 25 24 24 24 25
44 46 48 50 52 53 54 55 55 55 54 53 51 49 47 46 44 42 40 38 37 36 35 34 32 29 27 26 24 22 21 21 21 21 22 23 23 24 25 24 23 24 23
48 51 53 54 56 58 59 60 59 59 58 56 54 52 50 48 46 43 41 40 37 36 34 33 31 28 26 25 23 21 19 19 18 19 20 21 22 24 24 23 23 22 21
53 56 57 59 61 62 63 64 63 63 61 61 60 58 55 52 49 46 43 41 38 36 33 32 30 27 26 24 22 20 18 16 16 17 18 20 21 22 22 21 21 20 20
59 61 63 64 65 66 66 66 68 69 68 68 67 64 60 56 52 48 45 42 39 36 33 31 29 27 25 23 20 19 17 16 15 16 17 19 20 20 20 19 18 18 18
63 65 67 69 71 73 74 75 76 76 76 75 72 69 65 60 56 52 48 44 40 37 34 31 29 26 24 22 20 18 16 15 13 12 12 13 15 16 16 15 15 16 16
71 74 76 79 80 81 82 81 79 79 78 77 74 70 67 63 58 54 50 46 42 39 34 31 29 26 23 21 19 17 14 12 11 11 10 10 11 12 13 13 14 13 12
76 78 80 81 82 83 83 82 79 77 75 72 69 65 62 59 56 53 49 46 42 40 36 32 29 25 22 20 18 15 12 10 8 8 9 10 11 12 12 11 11 11 10
80 80 81 80 80 78 77 74 69 65 62 59 57 55 53 53 52 51 49 46 43 40 37 33 29 26 22 19 17 14 11 10 10 9 9 10 10 11 11 11 10 10 10
77 75 74 71 68 64 61 57 53 50 48 46 44 42 42 44 46 47 47 46 44 41 37 33 30 26 23 20 17 14 12 12 12 12 11 11 11 11 11 11 10 10 9
66 63 60 56 50 47 45 43 41 39 39 38 37 38 38 39 41 44 46 45 44 42 38 34 31 27 24 21 18 16 15 14 14 13 12 12 12 11 11 10 9 8 8
53 48 44 40 37 37 37 37 36 36 36 36 35 35 35 35 36 39 44 46 45 42 38 34 31 27 24 22 20 19 18 17 16 15 14 13 12 11 10 9 8 8 8
41 39 37 35 34 35 35 35 36 37 36 35 34 34 33 33 33 35 42 46 46 42 39 36 32 28 25 24 22 21 20 19 18 16 15 13 12 11 10 9 9 9 8
36 36 36 36 36 36 36 36 38 38 37 36 34 34 32 30 28 32 39 45 46 42 39 36 33 30 28 26 24 23 22 21 19 17 15 13 12 11 11 10 10 10 9

GEFSMW_500_meanwind_042.txt.gz
Wind_Speed
31 31 31 32 33 33 33 34 33 31 30 28 25 23 21 19 18 17 17 18 19 21 22 24 26 28 30 32 34 36 37 38 39 39 38 38 38 38 36 36 35 35 36
30 30 31 32 33 34 35 35 34 32 30 27 25 22 19 17 16 16 17 18 20 21 23 24 26 28 30 31 34 36 37 37 38 38 38 37 36 34 35 34 33 32 33
30 31 33 34 35 35 36 35 33 32 30 27 25 22 20 19 19 19 20 21 21 22 23 25 27 28 30 31 32 35 36 37 37 38 38 36 33 33 31 31 29 29 29
31 32 33 34 35 35 35 34 33 33 30 28 26 24 23 23 22 23 24 24 24 24 25 26 27 29 29 30 31 33 35 36 37 37 37 35 33 32 30 28 28 28 27
28 30 31 32 33 33 34 34 33 32 31 29 28 27 27 27 26 27 27 27 26 26 26 26 27 29 30 30 30 32 33 35 36 37 37 36 35 33 31 29 29 29 28
26 27 29 30 31 33 33 35 34 33 32 31 31 31 31 31 31 30 30 29 28 27 27 27 29 30 30 30 31 31 32 33 35 36 37 38 36 35 34 33 32 31 30
23 26 28 30 32 33 34 35 36 35 34 34 34 34 34 34 34 33 32 31 30 29 28 28 29 30 30 31 31 31 32 32 33 34 36 37 38 37 37 36 35 34 33
25 27 29 31 33 35 37 38 38 38 37 37 37 37 37 36 35 34 33 32 31 30 29 28 29 30 30 31 31 31 32 31 31 32 33 35 37 38 38 37 36 36 35
28 30 32 33 35 37 38 39 40 41 41 40 39 39 38 38 37 36 35 33 32 31 30 30 29 30 30 30 31 31 32 31 30 31 32 33 34 36 37 37 37 37 37
33 34 35 37 38 40 42 43 44 45 45 44 43 42 41 40 38 37 36 35 34 32 31 31 30 30 30 30 31 31 31 30 30 30 31 31 33 34 35 36 37 37 37
37 39 41 42 43 45 46 47 48 49 49 48 47 46 45 43 42 40 39 38 36 35 33 32 31 31 31 30 30 30 30 30 29 29 29 29 31 32 33 34 35 35 35
41 43 45 46 47 48 49 51 51 52 53 53 52 51 50 49 47 45 42 40 39 37 35 34 33 32 31 31 30 30 30 30 29 28 27 27 28 29 30 31 32 33 33
44 46 47 48 50 51 52 53 54 55 56 56 56 56 56 55 54 51 47 46 44 41 38 37 36 34 33 32 31 30 29 29 28 27 27 26 26 27 28 29 30 30 31
47 48 49 50 51 53 54 56 57 59 60 60 61 61 62 61 59 57 54 52 50 47 44 42 40 38 36 34 32 31 30 29 28 27 27 25 24 24 26 27 28 28 29
49 50 51 52 54 56 58 60 63 65 67 68 68 68 67 66 65 63 60 58 56 53 50 47 44 41 38 36 34 32 31 29 28 27 26 24 23 22 23 23 25 26 26
52 54 56 58 61 63 65 68 70 72 74 74 75 76 75 74 72 70 67 65 63 60 56 52 49 45 42 39 36 34 32 30 28 27 25 24 23 22 21 21 23 25 26
60 62 65 67 69 71 74 76 78 80 81 82 82 83 82 81 78 76 73 71 69 66 62 56 51 47 44 41 38 36 33 31 29 27 25 24 22 22 22 22 23 25 27
67 70 73 75 76 77 79 80 81 82 83 83 83 84 84 83 81 80 78 76 73 69 65 58 52 48 45 42 39 37 34 31 29 27 25 23 22 21 22 22 24 24 24
74 75 75 75 74 73 72 71 71 70 71 72 73 73 73 73 73 72 72 70 68 65 61 56 52 48 46 43 40 37 34 31 29 27 24 23 22 21 21 22 23 23 24
73 70 67 64 60 57 55 53 51 50 51 51 52 53 53 53 54 55 55 56 56 56 54 52 49 46 44 42 40 37 33 30 28 25 24 22 21 20 21 20 20 21 21
62 57 52 47 43 40 39 37 36 35 35 34 34 33 34 34 35 37 39 40 42 44 46 47 47 46 44 41 39 36 33 30 27 25 23 20 19 18 18 18 18 18 18
48 44 39 36 34 33 33 32 31 31 32 31 29 28 28 28 28 27 28 29 31 33 37 41 44 46 46 42 39 37 33 30 27 24 22 20 19 18 18 18 17 17 16
39 36 34 33 33 33 34 34 34 34 33 32 30 28 26 26 25 25 26 27 28 29 30 34 40 45 46 44 40 36 33 30 27 25 22 21 20 20 19 19 18 17 17
36 36 37 37 37 37 37 37 37 37 36 34 32 30 29 28 27 26 26 26 27 29 29 32 39 43 44 43 39 36 33 30 28 25 24 22 20 20 20 19 19 18 17
38 40 41 41 41 41 41 41 40 40 39 37 35 33 31 30 29 27 26 26 26 28 30 32 37 41 42 43 39 36 34 31 28 27 25 23 22 21 21 20 19 18 17
42 43 44 45 45 45 44 43 43 42 41 39 37 34 33 31 30 28 27 26 26 28 30 33 35 39 42 43 40 37 35 33 31 29 27 25 24 23 22 20 19 18 17

GEFSMW_500_meanwind_048.txt.gz
Wind_Speed
37 39 38 37 38 38 36 37 35 35 35 34 33 32 30 29 27 25 25 24 23 22 20 20 19 19 19 20 21 21 23 24 26 26 26 27 27 28 28 28 28 28 27
41 40 36 37 37 37 37 37 36 37 37 37 34 33 32 30 29 26 25 25 24 22 21 21 21 21 21 21 22 22 23 24 26 26 26 26 26 27 27 27 27 27 27
36 35 34 34 35 37 38 39 37 37 38 37 35 34 33 32 29 27 26 26 25 24 24 23 23 23 23 23 23 23 24 24 26 27 27 27 26 26 26 27 26 26 26
29 33 35 35 35 36 37 36 35 36 36 36 36 34 34 32 30 28 27 26 26 26 26 26 26 26 26 26 25 25 25 26 26 27 28 28 28 27 25 26 26 25 25
27 31 33 31 33 36 36 37 35 36 37 37 37 35 35 33 31 29 28 28 28 29 29 29 30 30 30 29 28 28 27 27 27 28 28 29 29 28 26 24 26 26 25
30 31 31 32 34 34 34 36 37 36 37 37 38 36 36 35 33 31 30 30 31 31 32 32 33 33 32 32 31 30 30 29 28 28 28 29 29 28 27 24 24 26 27
31 31 32 33 33 34 35 36 37 37 37 39 40 38 37 36 36 35 33 33 34 34 35 35 35 35 34 34 33 32 32 30 30 29 29 28 28 28 27 26 25 26 27
33 33 34 35 35 36 38 40 41 42 43 43 43 42 42 41 40 39 38 37 37 37 38 37 38 37 37 36 35 34 33 32 31 31 30 29 28 28 27 26 26 25 26
37 37 38 39 40 42 43 45 46 47 48 48 49 49 48 47 46 45 44 43 41 41 41 40 40 39 39 38 37 35 34 33 32 31 30 29 28 28 27 27 26 26 26
39 41 42 44 45 47 49 50 51 52 53 54 55 55 55 54 53 52 51 49 47 46 45 44 42 41 41 40 39 37 36 34 33 32 31 29 28 28 27 27 26 26 25
44 46 47 48 50 51 53 54 56 57 58 59 59 60 60 60 59 58 57 55 53 51 50 48 46 43 42 42 40 39 37 36 34 33 32 30 29 29 28 27 27 26 26
49 51 52 53 54 55 56 58 59 60 61 62 63 63 64 64 64 63 62 61 59 57 54 52 49 47 45 44 42 41 39 37 35 34 32 31 30 29 29 27 26 26 26
52 54 55 56 57 58 59 60 61 62 63 64 64 65 65 66 66 66 65 65 63 61 59 57 54 52 49 47 45 43 41 38 37 35 33 32 31 30 29 28 26 26 25
56 57 58 59 61 62 63 64 65 66 67 68 69 69 70 70 70 70 69 68 68 66 64 62 59 56 53 50 48 46 43 41 39 37 35 33 31 30 29 28 27 26 25
60 62 63 65 67 68 69 69 70 70 71 71 72 74 75 75 75 75 75 75 75 73 70 67 65 61 57 55 52 49 47 44 41 39 37 35 32 31 30 29 27 26 25
65 67 68 70 71 71 71 70 69 69 69 68 69 69 71 72 74 76 77 78 79 78 77 75 72 68 65 62 58 54 51 48 45 43 39 36 34 32 31 30 28 27 26
69 71 71 71 69 68 66 64 61 59 56 54 53 53 55 57 60 63 67 70 73 75 76 76 76 73 70 66 62 58 55 51 47 43 41 38 35 33 32 31 29 28 26
69 69 68 66 63 60 57 53 50 46 42 39 37 37 36 37 39 41 44 47 51 56 61 65 68 69 68 67 65 60 56 53 49 44 41 38 35 33 33 32 30 28 27
66 65 62 58 53 48 45 42 39 37 34 33 33 32 31 31 30 31 31 33 34 37 41 45 50 53 56 58 58 57 55 53 49 44 41 39 36 34 33 32 30 27 26
62 58 54 49 44 41 39 37 35 34 34 34 33 33 32 31 30 30 29 28 28 29 31 32 34 38 42 45 48 50 51 50 47 43 40 38 36 34 33 32 29 27 25
55 51 48 45 42 40 39 38 38 38 38 38 37 37 36 34 33 31 29 28 27 27 27 26 28 30 33 37 41 43 45 46 45 41 39 37 35 33 32 31 29 26 25
50 48 46 45 43 42 42 41 41 42 42 41 40 39 38 36 34 32 30 28 27 25 24 23 24 25 28 32 37 40 42 43 42 40 39 37 35 32 30 29 27 25 23
49 48 47 46 45 44 44 45 45 45 44 42 41 40 39 37 35 33 31 29 27 25 24 22 21 22 25 28 33 38 41 42 42 42 39 36 34 31 29 27 24 22 21
49 49 49 48 47 47 46 47 46 46 45 44 42 41 39 37 35 33 31 30 28 26 25 23 21 21 21 24 29 33 40 42 42 41 39 36 33 30 27 25 24 21 20
51 51 50 49 49 48 48 47 46 45 44 43 41 39 38 35 33 32 31 30 28 27 25 23 22 21 20 21 25 30 35 41 42 40 37 35 33 29 26 24 22 20 19
51 51 50 50 49 48 46 45 44 43 41 40 39 38 37 35 33 32 30 29 28 27 25 23 23 22 20 21 23 26 31 38 41 39 37 35 31 28 26 24 23 23 22

GEFSMW_500_meanwind_054.txt.gz
Wind_Speed
36 37 40 40 38 38 36 34 34 34 32 30 28 26 26 27 28 27 26 25 25 25 24 24 23 22 21 20 19 18 18 17 16 16 15 16 16 16 17 18 19 19 20
37 37 38 36 35 37 37 34 33 30 27 25 24 26 27 27 27 27 26 27 27 25 25 24 24 23 22 22 21 20 20 20 19 18 17 17 18 17 18 18 19 20 20
35 34 35 35 36 36 33 32 30 28 27 25 27 27 26 26 28 27 26 26 26 26 26 26 25 24 24 24 23 22 22 22 22 20 19 19 19 19 20 19 19 20 20
32 33 34 33 33 32 33 32 30 28 30 29 27 26 27 27 28 27 27 27 27 26 25 26 26 26 26 26 25 25 24 24 24 23 22 21 20 20 21 21 21 20 20
32 33 34 33 34 33 32 32 31 30 31 30 29 28 28 29 29 29 29 29 28 27 27 27 27 27 28 28 28 28 27 26 26 25 25 24 23 22 21 22 22 21 20
30 32 33 34 35 34 34 34 34 34 33 33 33 33 33 33 33 32 32 31 30 30 29 28 28 29 30 30 31 30 30 29 28 28 27 26 25 24 23 22 23 23 22
28 29 32 34 36 37 38 38 39 38 38 38 39 40 40 39 39 39 38 37 35 34 33 32 32 32 32 33 33 33 33 32 31 30 29 28 27 26 25 24 23 23 23
27 30 33 37 39 41 42 43 45 46 46 47 47 47 47 47 46 46 45 44 42 41 40 38 38 37 36 37 37 37 37 36 34 33 32 31 30 29 28 26 25 24 23
33 36 39 42 43 45 47 49 50 51 51 52 53 53 53 53 53 52 51 50 50 48 47 46 45 44 43 42 42 41 41 40 38 37 35 34 32 31 30 29 27 25 24
40 42 44 46 47 49 51 52 53 54 55 55 56 56 57 57 57 57 57 56 55 54 53 53 52 51 50 48 47 46 45 44 43 41 39 37 35 34 32 31 29 27 25
45 47 49 51 52 53 54 56 57 58 59 60 60 61 61 61 61 61 61 61 60 59 58 57 57 56 55 53 52 50 49 47 46 44 42 40 38 36 35 33 31 29 27
50 52 54 56 57 59 60 61 62 63 64 64 65 65 66 66 66 66 66 66 65 64 63 62 60 59 58 57 56 54 53 51 49 47 46 43 41 38 37 35 33 31 28
54 56 58 60 62 63 65 66 66 67 67 68 68 67 68 68 68 69 69 69 69 68 67 66 65 63 62 60 59 57 55 53 52 50 48 45 43 40 38 36 34 32 30
57 60 62 64 65 66 67 68 68 67 67 66 65 64 63 62 62 63 64 65 67 68 68 69 68 67 66 64 62 60 58 56 54 53 51 48 46 43 40 38 36 34 31
61 63 64 65 66 67 67 66 65 63 61 59 56 53 51 49 49 48 49 51 54 57 60 63 65 67 67 67 66 64 61 59 57 54 53 51 48 46 42 40 37 35 32
62 63 64 66 66 65 63 61 59 56 53 49 46 43 42 40 38 37 36 36 37 40 44 48 53 58 62 65 66 65 64 62 59 57 54 52 50 48 45 41 39 36 33
62 64 64 64 62 60 58 56 53 50 47 44 42 41 39 36 34 32 30 29 29 29 30 33 37 42 48 55 61 64 64 63 62 59 56 53 50 47 45 43 40 38 34
62 62 61 59 57 55 53 51 50 47 45 43 42 41 39 36 34 33 32 32 31 30 29 28 28 30 34 39 45 52 57 60 62 61 59 56 53 50 47 45 42 39 36
62 61 59 57 55 54 53 51 49 47 46 45 44 42 41 39 38 37 36 35 34 32 31 29 29 28 28 31 34 38 43 49 53 57 59 58 55 53 50 46 42 39 36
61 60 58 56 55 53 52 51 50 48 47 46 45 44 42 41 40 39 39 37 36 34 33 31 30 28 28 28 30 32 35 39 44 49 53 55 55 54 51 48 44 40 37
59 58 56 55 54 53 52 51 50 48 47 46 43 42 42 42 41 39 38 37 36 35 33 31 29 27 26 26 26 28 30 33 38 42 47 50 52 52 50 48 45 41 38
56 56 56 54 54 53 52 51 49 48 46 44 42 41 40 41 40 39 38 37 36 34 33 31 29 27 26 24 24 25 27 30 33 37 41 46 49 50 49 47 44 42 38
56 56 56 55 53 52 51 49 47 46 44 42 40 38 37 37 37 37 37 36 35 33 31 30 28 27 25 24 23 22 24 27 30 35 38 43 46 47 46 45 44 41 37
56 56 55 54 52 50 49 47 45 44 41 39 36 35 34 33 33 34 34 34 33 31 30 28 27 26 25 23 22 21 21 24 29 34 36 38 43 46 45 44 43 41 37
56 56 55 53 52 50 48 46 43 40 38 35 32 31 31 30 30 30 30 31 31 30 28 27 26 24 23 22 21 20 20 23 29 33 36 38 43 45 45 43 41 39 35
56 55 53 52 51 49 46 43 39 36 34 32 30 28 27 27 27 26 26 27 27 27 26 26 24 23 22 21 20 19 19 22 28 32 36 38 42 43 43 41 39 37 34

GEFSMW_500_meanwind_060.txt.gz
Wind_Speed
32 33 35 36 37 37 38 39 37 36 37 36 34 31 27 24 24 23 25 27 25 25 27 27 27 25 25 24 24 24 23 22 22 21 20 20 19 18 17 15 14 14 13
35 37 38 38 39 39 38 38 37 35 35 34 32 28 25 23 21 20 21 23 23 24 25 25 26 25 25 25 25 26 25 25 24 23 22 22 21 20 19 17 16 15 14
37 38 39 39 38 38 37 37 37 35 34 32 31 28 26 24 22 22 22 22 24 25 25 25 25 26 26 27 27 28 27 27 27 26 25 24 23 22 21 19 18 17 16
36 36 35 35 36 36 37 37 36 36 36 34 32 30 28 27 26 26 26 26 26 26 26 27 27 28 28 28 28 30 31 30 29 29 28 27 26 25 24 22 20 19 18
30 32 31 32 33 34 35 36 37 37 37 37 36 34 32 31 30 29 29 28 29 29 29 30 30 30 30 30 31 31 33 33 33 32 31 30 29 28 26 25 23 21 20
26 27 28 31 33 34 35 36 38 39 40 40 39 39 38 37 36 35 34 34 35 35 36 35 34 34 35 34 34 34 35 35 35 34 34 33 32 30 29 27 26 24 22
28 30 32 33 35 36 38 39 41 42 42 42 42 42 42 42 42 42 42 42 42 42 41 41 40 39 38 38 37 38 38 38 38 38 37 36 35 33 31 30 28 26 25
32 34 34 36 37 38 40 41 42 44 44 45 46 46 46 47 47 47 47 47 48 48 47 47 46 45 44 42 42 42 42 42 41 41 41 40 38 37 35 32 30 29 27
34 36 37 38 39 41 42 43 45 46 47 48 48 49 50 51 51 52 52 53 53 53 53 53 52 51 50 49 48 48 47 46 45 44 44 43 42 40 38 36 33 31 29
36 38 39 41 43 44 45 46 47 48 48 49 50 51 53 54 55 56 57 57 58 58 58 58 58 57 56 56 55 54 53 52 50 49 48 47 46 44 42 40 36 34 31
39 41 43 45 46 47 48 49 50 50 50 51 51 52 53 54 54 55 56 57 59 60 61 62 62 62 62 61 60 59 58 57 56 55 53 51 50 48 46 43 40 37 34
43 45 47 48 50 51 52 53 54 55 55 55 54 53 53 53 52 51 51 52 53 56 59 62 63 64 65 65 65 64 63 62 60 59 58 56 54 52 50 47 43 40 37
47 49 50 52 54 55 56 57 57 58 58 58 57 55 54 52 50 49 48 47 47 48 50 54 59 62 65 66 67 68 68 67 65 63 61 59 57 55 53 50 47 43 40
50 52 53 55 56 57 58 59 60 61 61 61 59 57 54 52 49 47 45 43 42 41 41 44 48 53 58 63 67 69 70 70 70 68 65 63 60 57 55 53 50 47 43
52 54 55 56 57 58 60 60 61 61 61 60 59 57 54 51 49 46 44 42 40 38 37 37 37 40 44 49 55 62 67 70 71 71 69 66 63 60 57 55 53 50 46
53 54 56 56 58 59 60 60 60 60 60 59 58 56 54 52 49 46 44 42 40 38 36 35 34 35 35 38 41 46 53 60 65 69 71 69 66 62 59 56 54 51 48
55 56 56 57 58 59 60 60 60 59 59 57 56 55 53 51 49 46 44 43 41 40 38 36 35 33 32 32 33 36 40 44 50 57 63 67 67 64 61 58 55 51 48
56 56 56 57 59 60 60 59 58 58 57 57 55 53 51 50 48 47 44 42 42 40 39 37 36 35 33 32 31 31 33 36 41 46 52 58 62 64 63 60 57 53 49
56 56 57 58 59 59 59 57 57 57 57 56 54 52 50 48 47 45 44 42 41 40 39 38 38 36 34 33 32 30 29 30 33 37 42 47 53 58 61 60 58 55 51
56 57 57 58 59 58 57 57 57 57 56 54 52 50 48 46 44 42 41 40 39 38 38 38 38 37 36 34 32 31 29 28 29 31 35 40 45 50 56 58 57 55 52
57 57 58 58 57 57 57 57 57 56 54 51 48 46 44 42 40 38 37 37 37 37 37 36 36 36 36 35 33 32 30 28 28 28 30 34 38 43 50 54 55 54 53
56 57 57 57 56 57 57 57 55 53 50 48 45 42 38 36 35 34 33 33 33 34 35 34 34 34 34 34 33 31 30 29 28 28 28 30 33 38 44 49 51 52 52
56 56 56 56 56 56 56 55 53 50 47 44 41 38 35 33 32 30 29 29 30 31 32 32 32 32 32 32 31 31 29 28 28 27 29 29 31 34 39 44 48 50 51
55 55 55 55 54 54 53 53 52 48 45 42 39 36 33 30 28 25 25 25 25 26 27 28 29 29 29 29 29 28 28 27 27 27 28 29 29 31 35 41 45 47 49
54 54 55 54 53 53 52 53 51 47 44 41 39 34 31 27 23 21 20 19 20 20 21 23 25 26 26 26 26 26 26 25 25 25 26 27 29 30 34 40 44 46 48
53 53 53 53 52 52 52 52 50 47 43 40 37 33 28 24 20 18 15 14 14 16 18 20 22 23 24 24 23 23 23 24 23 22 23 25 28 31 34 38 42 45 47

GEFSMW_500_meanwind_066.txt.gz
Wind_Speed
25 27 30 32 34 37 38 39 40 40 40 40 39 37 36 35 33 31 29 26 26 28 27 29 30 31 32 31 31 30 30 30 29 27 26 26 26 25 24 23 22 20 20
27 29 32 33 35 36 38 38 38 38 38 37 36 36 35 34 33 31 29 26 26 27 27 28 29 30 29 29 31 31 30 29 29 29 28 28 27 27 26 25 24 23 21
28 29 32 32 33 35 35 36 36 36 36 36 36 36 36 34 32 31 29 27 26 27 27 28 29 29 29 29 30 31 31 31 31 31 30 30 30 29 29 28 27 25 24
26 29 30 31 32 33 34 34 35 35 36 37 37 37 36 35 34 33 32 30 30 29 29 29 29 30 30 31 31 31 30 30 31 31 31 32 31 31 31 30 29 27 26
25 27 29 30 31 32 33 34 35 36 37 38 38 39 38 38 38 37 36 34 34 34 33 33 33 32 33 32 32 32 31 31 32 32 32 33 33 33 33 33 32 30 28
26 28 29 31 32 34 35 37 38 39 39 40 41 41 41 41 41 40 40 39 38 37 38 38 37 37 37 36 35 35 35 35 35 35 36 36 36 35 35 35 35 33 32
27 29 31 32 34 36 37 38 40 41 42 43 44 44 44 44 44 43 43 43 42 42 42 42 42 42 42 41 40 40 39 39 39 38 39 39 39 39 38 38 38 37 35
29 31 32 33 35 37 39 40 41 43 44 45 45 46 45 45 46 46 46 46 46 46 46 46 46 47 47 47 47 46 44 43 43 43 42 42 42 41 42 42 41 40 38
30 32 33 35 37 39 41 42 43 44 45 45 46 46 46 46 47 47 47 48 48 49 49 50 50 52 53 53 54 53 52 50 49 47 46 47 46 45 45 45 44 43 41
32 33 35 37 39 41 42 43 44 45 45 46 47 47 47 48 48 48 49 49 50 50 51 53 53 54 56 57 58 59 59 57 56 54 53 51 50 49 48 48 47 46 45
33 35 38 40 42 43 44 44 45 46 47 47 47 48 48 49 49 49 49 50 51 51 52 54 55 56 58 60 61 62 63 63 62 60 59 57 54 53 52 51 50 49 48
36 38 40 42 44 45 45 46 47 47 47 48 48 48 49 49 50 50 51 52 53 53 54 54 56 58 60 61 63 64 65 66 66 65 65 63 60 58 56 55 54 53 51
38 41 43 45 46 46 47 47 47 48 48 49 49 50 50 50 51 51 52 52 53 54 54 54 55 57 59 61 63 65 66 68 69 69 68 67 66 64 61 60 58 56 54
41 43 45 46 46 47 48 48 48 49 50 50 51 51 51 51 51 52 52 52 52 52 52 53 53 54 56 57 59 62 64 67 68 69 69 69 69 69 68 66 64 62 59
43 45 46 47 47 48 48 48 48 50 51 51 51 51 50 51 51 52 52 51 51 51 51 51 51 51 51 52 53 55 58 61 63 65 67 68 68 69 70 68 67 67 64
45 46 47 48 48 48 48 48 49 51 51 51 50 51 51 51 51 51 50 50 49 49 48 48 48 48 49 49 49 50 51 53 55 58 62 65 66 66 67 68 67 67 67
47 47 48 48 48 48 49 49 50 51 51 50 50 50 51 50 49 49 48 47 46 46 46 46 46 47 48 49 48 47 47 47 47 49 52 57 61 63 65 66 67 67 67
48 48 48 48 48 49 50 50 51 51 50 50 50 50 50 49 47 46 45 44 43 43 43 44 44 44 45 46 46 46 46 44 43 43 44 46 51 55 58 62 62 62 66
49 49 49 49 49 50 50 51 51 50 50 50 50 50 49 48 46 44 41 40 39 39 39 40 40 41 41 43 44 44 44 43 41 40 40 41 42 46 49 52 55 57 60
49 48 48 48 49 50 50 50 50 50 50 50 49 49 47 45 43 40 38 36 35 34 34 35 36 37 38 40 41 42 43 41 40 39 38 38 38 40 42 44 48 52 55
49 48 48 48 49 49 50 49 49 50 49 49 49 48 46 44 41 37 34 32 30 29 29 30 31 33 36 38 39 40 41 40 39 38 37 36 36 37 38 39 42 46 51
49 48 47 47 48 49 49 49 49 49 49 48 47 46 44 41 37 33 30 28 25 24 24 25 27 29 31 35 37 38 39 39 38 37 36 35 34 33 35 37 39 42 46
49 48 47 47 48 49 49 49 49 49 48 47 45 44 42 39 35 31 27 23 20 19 19 20 22 25 27 31 34 36 36 36 36 35 35 33 32 31 32 34 36 39 42
49 48 47 47 48 48 48 49 48 48 48 46 44 42 40 37 32 28 24 19 15 14 14 15 18 21 23 26 29 32 34 34 34 34 33 32 31 30 30 31 32 34 38
48 48 47 47 47 47 47 47 47 47 46 45 43 40 39 35 30 26 21 17 13 11 10 11 13 16 20 23 25 28 30 31 31 32 31 31 29 28 28 30 32 32 35
48 47 46 46 46 46 46 46 46 45 45 44 41 39 37 33 28 23 20 17 13 9 6 6 10 13 17 21 23 25 27 28 29 29 29 29 28 27 27 29 31 32 34

GEFSMW_500_meanwind_072.txt.gz
Wind_Speed
21 23 24 26 27 29 31 34 36 38 39 39 40 40 40 40 40 40 40 39 38 37 36 35 33 31 30 28 29 31 31 30 31 31 30 29 28 28 27 27 26 26 26
21 23 24 26 28 30 32 34 35 36 38 39 40 40 40 40 39 39 38 38 37 37 35 34 33 32 30 29 30 31 32 32 32 32 31 30 28 29 29 28 29 28 27
20 22 24 25 27 29 31 33 35 36 38 39 39 39 39 39 40 39 38 38 38 37 36 35 34 33 31 30 31 31 32 33 32 32 32 31 29 30 30 30 30 29 29
19 20 22 24 26 28 30 32 34 35 36 37 38 38 39 40 40 40 40 39 39 38 38 37 35 34 32 32 31 31 31 33 33 33 33 32 31 31 31 32 32 32 31
21 22 24 25 27 29 30 32 33 34 35 37 38 40 41 42 42 42 41 41 41 40 40 39 38 37 36 35 33 33 33 34 34 34 34 34 34 33 33 33 34 34 33
23 24 25 26 28 29 31 32 33 35 36 38 40 41 42 43 43 43 43 43 43 42 41 41 40 40 39 38 36 35 34 34 35 34 35 36 36 36 35 35 35 35 35
25 26 27 28 29 31 32 34 36 37 39 40 41 42 43 44 44 44 44 44 44 44 44 42 42 42 41 41 40 40 39 38 38 38 37 38 38 38 38 37 37 37 36
27 28 30 31 32 34 36 37 39 40 41 42 42 43 44 44 45 45 45 45 45 45 45 44 44 44 44 44 44 44 44 43 42 41 41 40 40 40 40 39 38 38 37
29 31 32 34 35 37 39 40 41 42 43 44 43 43 43 44 44 44 45 45 45 45 45 45 45 45 46 46 46 47 48 48 46 46 45 44 43 42 43 42 40 40 39
31 33 35 36 37 39 41 42 44 45 45 44 44 43 43 43 44 44 45 46 46 47 47 47 46 46 46 47 48 49 49 50 51 50 49 48 47 45 45 44 42 42 42
33 35 36 38 39 41 43 44 45 45 45 45 45 44 44 44 45 45 46 47 47 48 49 49 49 49 49 49 49 50 51 52 52 53 53 52 51 51 49 48 46 45 43
34 36 37 39 41 43 44 44 45 45 45 45 44 44 44 45 46 47 48 48 48 49 49 50 50 50 50 50 50 51 52 53 54 55 55 55 56 55 54 53 51 49 47
35 37 39 41 43 44 44 44 45 45 45 45 45 46 46 47 48 48 48 48 49 50 50 50 51 51 51 52 53 53 53 54 55 57 58 58 58 58 57 56 55 52 50
37 39 41 43 44 45 45 45 45 45 45 46 46 47 48 49 49 48 49 49 50 50 51 51 52 52 52 52 54 55 55 55 57 58 59 59 60 60 60 59 57 56 54
39 41 43 45 45 45 45 45 45 45 46 46 47 48 48 48 48 49 49 49 49 49 50 50 51 51 53 53 53 55 56 57 57 59 60 62 62 62 62 61 60 59 58
40 43 45 46 46 46 45 45 45 46 46 47 48 48 48 48 48 48 48 49 49 48 48 47 48 49 50 51 51 52 54 55 55 57 59 61 64 64 63 62 62 60 59
42 45 47 47 47 46 46 45 46 46 47 48 49 48 48 47 47 48 48 48 47 46 45 44 45 45 46 47 47 48 49 50 51 52 53 56 60 62 63 63 63 62 61
45 47 48 48 47 47 46 46 46 47 48 49 48 47 47 47 48 48 48 46 45 43 42 42 41 41 42 42 43 44 45 46 46 48 49 50 53 55 57 59 60 60 60
46 48 48 48 47 47 47 47 47 47 48 48 48 47 47 47 47 47 46 44 43 41 39 38 37 36 36 37 38 40 40 41 42 44 45 45 46 47 50 52 54 56 57
48 48 48 48 48 47 47 47 47 48 48 47 47 47 47 47 46 45 44 42 40 38 36 34 32 31 31 31 32 34 35 37 37 38 40 41 42 42 42 45 47 50 52
48 48 49 48 48 48 47 47 47 48 47 47 47 47 47 46 44 42 40 38 36 35 32 30 28 27 26 26 27 28 29 31 33 34 36 37 38 39 38 38 40 43 46
47 48 48 48 48 47 47 47 47 47 47 47 47 46 45 43 42 40 37 35 33 32 30 28 25 22 22 22 23 24 25 27 29 31 33 34 35 35 35 36 36 37 40
47 48 48 48 47 47 46 46 46 46 46 46 46 44 42 42 40 38 35 33 31 30 28 25 22 19 17 17 18 20 22 24 26 27 29 30 31 31 32 33 34 34 35
47 48 47 47 46 46 46 46 46 45 45 45 44 42 41 40 39 36 34 31 30 28 25 21 18 15 12 12 14 16 19 21 23 25 26 27 28 29 29 30 31 31 32
47 47 47 47 46 45 45 45 45 44 44 44 43 41 40 39 37 34 32 30 29 26 22 19 16 12 10 9 9 12 15 18 21 23 25 25 26 27 27 27 28 29 30
47 47 46 46 46 45 44 44 43 43 42 42 41 40 39 37 35 33 31 30 27 24 21 18 15 12 9 6 6 9 12 16 18 21 23 23 24 25 26 26 26 27 28

GEFSMW_500_meanwind_078.txt.gz
Wind_Speed
18 19 20 21 22 22 23 25 26 28 29 30 31 32 34 35 35 36 36 36 37 36 35 35 34 33 32 32 31 29 28 28 27 27 28 28 28 29 30 30 30 29 29
15 16 18 20 21 23 24 25 26 28 29 31 32 34 35 35 35 35 36 36 37 36 36 36 35 35 34 33 32 30 29 28 29 28 27 27 28 29 30 30 30 30 29
13 15 17 19 20 22 24 25 26 28 30 31 33 34 35 35 36 36 37 37 38 38 38 38 37 36 36 35 33 32 30 29 29 28 28 26 27 29 30 31 31 32 30
12 14 16 18 19 21 23 25 27 29 31 32 34 35 36 37 38 38 38 38 39 39 39 39 39 38 37 37 35 34 33 31 30 29 29 29 29 29 31 32 32 32 32
12 13 15 17 19 21 23 25 27 29 31 33 35 36 38 39 39 40 40 40 40 39 39 39 39 39 38 38 37 36 35 34 32 31 31 31 29 30 31 33 34 33 33
11 14 16 18 20 21 24 26 27 29 31 33 35 37 38 39 39 40 40 40 40 40 39 39 39 39 38 38 38 37 37 36 35 34 33 33 33 32 32 35 36 35 34
13 15 17 19 21 23 25 28 29 31 33 35 37 38 38 39 39 40 40 41 41 40 40 39 39 38 38 38 38 38 37 37 37 37 36 36 35 34 35 36 37 37 36
16 18 20 22 25 27 29 30 32 34 35 37 38 38 38 39 39 40 40 40 41 40 40 39 39 39 39 39 38 38 38 38 38 38 38 38 38 36 37 37 37 38 38
20 22 24 26 28 30 32 34 36 37 38 39 39 39 39 40 40 40 40 40 40 40 40 40 40 40 40 40 40 40 39 39 39 39 40 39 39 39 39 39 39 39 39
24 26 27 30 32 34 36 39 40 41 41 41 41 41 40 40 40 40 40 41 41 41 41 41 41 41 40 40 40 40 40 41 41 41 41 41 41 41 42 41 41 40 40
27 28 30 32 35 37 40 42 42 43 42 42 42 42 41 41 41 41 42 42 42 42 43 43 42 42 42 42 41 41 42 42 42 43 43 43 43 44 44 44 43 43 42
28 30 32 35 37 40 41 42 43 42 42 42 42 42 42 42 42 42 43 43 43 43 43 44 43 43 44 44 44 45 45 45 45 45 45 45 46 46 46 46 46 46 46
30 32 35 37 39 41 42 42 42 42 42 42 42 42 42 42 43 43 43 44 44 44 44 44 44 44 44 45 46 46 47 47 48 48 48 48 49 49 49 49 49 49 49
32 34 36 39 41 42 42 43 43 43 43 43 42 42 42 42 43 43 44 44 45 45 44 44 44 45 45 46 47 48 49 50 50 50 51 50 51 52 52 52 51 52 51
34 36 39 41 43 43 43 43 43 43 43 43 42 42 42 43 44 44 44 45 45 44 44 44 45 45 46 47 48 49 49 50 51 52 53 53 53 54 54 54 54 54 54
35 38 41 43 43 43 43 43 43 43 43 43 43 42 43 44 44 44 45 44 44 44 44 43 43 44 45 46 46 47 48 49 50 51 53 54 55 56 57 57 56 55 55
37 40 42 43 43 44 44 44 44 44 44 43 43 43 44 44 45 44 44 44 43 42 42 42 41 42 43 43 44 44 45 46 47 49 51 53 55 56 58 58 58 57 56
38 41 43 43 44 44 44 44 44 44 44 44 44 44 45 44 44 44 44 43 41 40 40 40 40 40 40 40 40 41 42 43 44 46 48 50 52 55 56 58 59 59 59
40 42 43 44 44 44 44 44 44 44 44 44 44 45 44 43 43 43 43 41 39 38 38 37 37 36 36 37 36 37 38 38 40 42 43 45 48 51 54 56 57 59 60
40 42 44 44 44 43 43 44 44 44 44 44 44 44 43 43 42 42 41 38 37 36 35 35 34 34 33 33 32 32 32 33 34 36 38 41 43 46 49 52 54 55 57
41 43 43 43 43 43 44 44 44 44 44 44 44 43 43 42 41 41 39 37 36 35 34 33 32 31 30 29 28 27 26 27 29 31 34 36 40 43 45 48 50 50 53
41 42 42 43 43 43 44 44 44 44 44 43 43 43 43 41 40 39 38 36 35 34 33 32 31 29 28 26 24 22 21 22 24 26 29 32 35 38 41 43 45 47 48
40 41 42 42 43 44 44 44 44 44 43 43 43 43 42 41 40 38 37 36 35 34 32 30 28 27 25 22 19 18 17 17 19 21 23 27 31 33 37 39 41 41 43
40 41 41 42 43 44 45 45 45 44 43 43 42 42 41 40 40 38 37 36 35 33 31 29 26 24 22 19 16 15 14 14 15 18 21 24 28 30 33 35 37 38 39
40 40 41 42 43 44 45 45 45 44 43 43 42 41 40 40 39 38 37 36 34 33 30 27 25 22 19 16 13 11 10 11 13 15 18 22 25 28 30 32 34 36 38
39 40 41 42 44 45 45 45 45 44 43 42 41 40 39 39 38 37 36 36 34 31 29 27 24 20 17 14 12 8 6 7 10 13 16 20 23 25 28 30 31 33 34

GEFSMW_500_meanwind_084.txt.gz
Wind_Speed
18 16 15 15 15 16 17 18 18 20 21 22 23 24 25 27 28 29 29 30 31 32 32 32 33 33 33 32 32 31 31 30 29 28 28 28 28 29 29 29 29 30 32
14 13 14 14 15 16 17 18 19 20 22 23 25 26 28 28 29 30 32 32 33 34 34 34 34 35 35 34 34 33 32 32 31 30 29 28 28 28 28 29 30 31 32
10 11 13 14 15 16 17 18 20 21 23 24 26 28 29 31 32 33 34 35 36 36 36 36 36 36 36 36 36 35 34 33 33 32 31 30 29 29 29 30 31 32 33
10 11 12 14 14 16 18 20 21 23 24 26 27 29 30 32 33 35 36 37 37 37 37 37 37 37 37 37 37 36 35 35 34 34 34 33 31 30 30 30 31 32 33
9 11 13 14 16 17 19 21 22 24 26 28 29 31 32 34 35 36 37 37 38 38 37 37 37 37 37 37 37 37 37 36 36 36 35 35 34 32 31 30 31 33 33
8 11 13 15 17 18 20 22 24 26 28 29 31 32 33 34 35 36 36 37 37 38 38 37 37 37 38 38 38 38 38 37 37 37 36 36 35 34 34 32 32 33 34
9 12 14 16 17 19 21 23 26 27 29 30 32 33 33 33 34 34 35 35 36 36 37 37 37 37 37 37 38 38 38 38 37 37 37 37 37 37 36 35 34 34 35
12 14 15 17 18 21 23 25 27 28 30 31 32 33 33 33 34 34 34 34 35 35 36 36 36 36 37 37 37 37 37 37 37 37 37 37 37 38 38 37 37 36 36
13 14 16 17 19 21 24 26 28 30 31 32 32 33 33 34 34 34 35 35 35 35 36 36 37 37 37 37 37 37 37 37 37 37 37 37 38 38 39 39 39 38 38
14 15 16 18 21 23 26 29 31 32 33 33 33 34 34 34 35 35 35 35 36 36 37 37 37 38 38 38 38 38 38 38 38 39 39 39 39 39 40 40 40 40 39
15 16 19 21 24 27 29 32 33 33 33 34 34 35 35 36 36 36 36 37 37 37 37 38 38 39 39 39 39 39 40 40 40 40 40 40 41 41 41 42 42 42 42
17 19 21 24 26 29 32 33 34 34 35 35 35 36 37 37 37 37 38 37 37 38 38 39 39 40 40 40 40 40 41 41 42 42 42 41 42 42 42 43 43 44 45
20 22 24 26 29 31 33 34 35 35 35 36 36 37 38 38 38 38 38 38 38 39 39 39 40 40 40 40 40 40 41 41 42 43 43 43 44 44 44 45 45 46 46
22 24 26 28 31 33 35 35 35 36 36 37 37 38 39 39 39 39 39 39 39 39 39 40 40 40 40 39 39 39 39 40 41 43 44 45 45 45 46 47 47 47 48
24 26 28 30 33 34 36 35 36 36 37 38 39 39 40 40 40 40 40 40 40 40 40 41 41 40 39 39 39 39 39 40 41 42 44 45 46 47 48 48 49 49 49
26 28 30 32 34 35 35 35 36 37 38 39 40 40 41 41 41 41 41 41 41 41 41 41 40 38 38 38 38 38 38 39 40 42 43 45 46 47 49 49 50 51 51
27 29 31 33 35 35 35 36 37 38 39 40 41 41 41 42 42 42 42 42 42 42 41 40 39 38 37 38 38 37 37 38 39 40 42 45 46 47 49 50 52 53 54
29 30 32 34 35 35 35 36 38 39 40 41 42 42 42 43 43 43 42 42 42 42 41 39 38 38 38 38 37 37 36 36 37 39 40 42 44 47 49 51 52 54 56
30 32 33 34 35 35 36 37 39 41 41 42 43 44 44 43 43 43 43 42 42 42 41 39 39 38 38 38 37 37 36 35 35 36 38 39 42 44 47 49 51 53 56
31 32 33 34 35 36 37 39 41 42 43 43 44 45 44 44 44 44 43 42 42 41 41 39 39 38 38 37 37 36 35 33 33 33 34 36 38 41 44 46 48 51 54
32 33 34 35 35 36 38 40 42 43 44 45 45 45 45 44 44 44 43 42 42 41 40 39 39 38 38 36 36 34 32 31 30 30 31 33 35 37 40 43 46 48 52
32 34 35 36 36 37 39 41 42 44 45 46 46 46 45 45 44 43 42 42 41 40 39 39 38 37 37 35 33 31 29 27 27 27 28 28 30 33 37 40 43 46 48
34 35 36 37 37 38 40 42 43 45 46 46 46 46 46 45 44 43 42 41 40 39 39 38 37 36 35 33 31 28 26 25 24 23 23 24 26 28 32 35 39 42 45
35 36 36 37 39 40 42 44 45 46 46 47 47 46 46 45 44 43 41 40 39 39 39 37 35 34 32 30 28 26 24 22 20 19 19 20 21 24 28 31 35 38 41
36 36 37 38 40 42 44 45 46 46 47 47 47 46 45 44 43 42 40 39 39 38 37 35 33 31 29 27 26 24 22 20 18 16 14 14 16 19 23 27 30 34 37
36 37 39 40 42 43 44 46 47 47 47 48 47 46 45 43 42 40 39 39 38 37 35 33 32 30 28 25 24 22 20 18 15 12 11 10 11 14 18 22 26 30 34

GEFSMW_500_meanwind_090.txt.gz
Wind_Speed
18 17 16 15 14 13 13 13 13 14 14 15 16 16 16 17 18 20 21 22 23 25 26 27 28 29 30 30 30 30 30 30 30 30 29 29 29 28 29 28 29 29 30
13 13 12 10 10 10 11 12 13 14 15 16 17 18 19 20 21 22 23 24 25 26 27 28 30 30 31 31 32 32 31 31 31 31 31 30 30 30 30 30 30 30 31
7 6 6 7 7 9 10 12 13 14 16 17 18 19 21 22 23 24 25 26 27 27 28 29 30 30 31 31 32 32 32 32 32 33 33 32 32 32 31 32 32 31 32
4 5 6 7 8 9 11 12 13 15 16 18 19 21 22 23 25 26 27 27 28 28 29 30 30 30 31 32 32 33 33 33 34 34 34 34 34 34 33 33 34 33 33
4 5 6 7 8 10 12 13 14 16 18 19 21 23 24 25 26 27 27 28 28 29 30 30 31 31 32 32 33 33 34 34 35 35 35 36 36 36 36 35 35 35 35
4 6 7 8 10 11 13 15 17 19 20 22 23 24 25 26 27 27 27 28 29 30 30 31 31 32 32 32 33 34 34 35 35 35 36 36 37 37 37 37 37 37 37
6 7 9 10 12 14 15 17 19 21 22 23 24 25 25 26 26 27 28 28 29 30 30 31 31 32 32 33 33 34 34 35 35 36 36 37 38 38 38 38 38 39 39
8 10 11 13 14 16 17 19 21 22 23 24 24 25 25 26 26 27 28 29 29 30 30 31 31 32 33 33 34 34 35 35 36 36 37 37 38 39 39 39 39 39 40
10 12 13 14 16 17 19 20 21 22 23 24 24 24 25 26 26 27 28 28 29 29 30 31 31 32 32 32 33 33 34 35 36 37 38 38 39 39 40 40 40 40 40
12 13 14 16 17 18 20 21 21 22 23 24 24 24 24 25 26 27 28 29 29 30 31 31 32 32 32 32 33 34 34 35 36 37 38 39 40 40 41 41 41 41 42
13 14 15 17 18 19 20 21 22 22 23 23 23 24 25 26 27 28 29 30 31 31 32 32 32 33 33 33 34 35 35 36 37 38 38 39 40 41 41 42 42 42 42
14 15 16 17 18 19 21 22 22 22 22 23 24 25 27 28 29 30 31 32 33 33 33 33 33 34 34 35 35 36 37 37 38 39 39 39 40 41 42 43 43 44 44
14 15 16 18 19 20 21 22 22 22 22 23 25 27 28 30 31 33 33 34 35 35 35 35 35 35 35 36 37 37 37 37 37 38 39 39 40 41 42 43 44 45 45
14 15 17 18 19 21 21 22 22 23 24 26 28 29 31 33 34 35 36 36 37 37 36 36 36 36 37 37 36 36 36 36 36 37 37 38 39 40 42 43 45 46 46
15 16 18 19 20 21 22 22 23 24 26 28 30 32 34 35 36 37 38 38 38 38 38 37 37 37 37 36 36 36 36 36 36 37 37 38 39 40 41 43 44 46 47
16 17 18 20 21 22 23 24 25 26 28 30 32 34 36 37 38 39 40 40 40 40 39 38 38 37 36 36 36 36 36 36 36 37 37 38 38 39 41 42 44 46 47
16 18 19 21 22 23 24 25 26 28 30 32 34 36 38 39 40 41 41 42 42 41 40 39 38 37 36 36 35 36 36 35 36 36 37 38 39 40 41 43 44 46 48
17 19 20 22 23 24 25 26 28 29 31 34 36 38 40 41 41 42 43 43 42 41 40 39 38 37 36 36 36 36 35 35 36 36 36 37 38 40 41 42 44 46 48
19 20 22 23 24 25 26 27 29 31 33 36 38 40 41 42 42 43 43 43 42 41 40 38 37 36 36 36 35 35 35 34 34 35 36 36 37 39 40 41 43 45 47
20 22 23 24 25 26 27 29 31 33 35 37 39 41 42 43 44 44 44 43 42 41 39 37 36 37 36 35 35 34 34 34 34 34 35 35 36 36 37 38 40 43 45
22 23 24 26 27 28 29 31 33 34 37 39 41 43 44 45 45 45 44 43 42 40 38 37 37 36 35 34 34 33 33 33 32 32 33 34 33 33 34 36 37 40 44
24 25 26 27 28 29 31 32 34 36 38 41 43 44 45 45 45 44 44 43 41 39 37 37 36 35 34 33 32 32 32 31 30 30 31 30 30 30 31 33 35 38 41
26 27 28 29 30 31 32 34 36 38 41 43 45 46 47 46 45 45 44 42 40 39 37 36 35 34 33 32 32 32 31 30 29 28 27 26 26 26 27 29 32 35 38
28 29 31 32 33 33 35 36 38 40 43 45 46 47 47 47 45 44 43 41 40 38 37 36 35 33 32 31 31 30 29 27 26 25 23 22 22 22 23 26 28 31 35
30 32 33 34 34 35 37 38 40 42 44 46 47 48 48 47 45 44 42 41 39 38 36 35 34 32 31 31 30 29 27 26 24 22 20 18 18 17 18 21 24 27 31
33 34 36 36 37 38 40 41 41 43 45 48 48 49 48 46 44 43 41 40 39 37 35 33 33 31 31 30 29 27 26 24 22 20 17 16 15 14 14 16 19 23 27

GEFSMW_500_meanwind_096.txt.gz
Wind_Speed
11 12 12 12 12 11 12 13 14 15 14 13 13 14 13 14 16 16 17 18 19 21 21 22 22 23 24 24 25 26 27 28 28 29 29 29 29 29 28 28 28 28 28
8 8 8 9 10 10 11 12 13 12 13 14 14 14 15 16 17 18 19 20 21 22 22 23 24 25 25 26 27 28 28 29 29 29 30 30 30 31 30 30 29 29 30
5 5 4 5 7 8 9 9 10 11 12 13 14 15 17 18 19 19 20 21 22 22 23 24 25 26 26 26 27 28 29 30 30 31 31 31 31 31 31 31 31 31 31
3 3 4 6 7 7 8 9 10 12 13 14 15 17 18 19 20 21 21 22 22 23 23 24 25 26 26 27 27 28 29 29 30 31 31 31 31 32 32 33 33 32 33
2 3 4 5 6 7 8 10 12 13 14 15 17 18 20 20 21 21 21 22 23 23 24 24 25 26 27 27 28 28 29 29 29 30 31 31 32 33 33 34 35 34 34
3 4 4 6 7 8 9 11 13 14 16 17 18 19 20 21 21 22 22 23 24 24 24 25 26 27 27 28 28 29 29 29 29 30 30 31 32 32 33 33 34 35 35
4 4 5 7 8 10 11 13 14 15 17 18 19 20 20 21 21 22 23 24 25 26 26 26 27 28 29 29 30 30 30 30 30 30 30 31 32 33 33 34 34 34 35
5 6 7 9 10 11 13 14 15 17 18 19 19 20 21 21 22 22 23 24 25 27 28 29 29 30 30 31 31 31 31 31 31 32 32 32 32 33 33 34 34 34 35
7 8 9 10 11 12 14 15 16 17 19 19 19 20 21 22 23 24 25 26 27 29 29 30 31 31 32 32 32 33 33 33 33 34 34 34 34 34 34 34 35 35 35
9 10 11 12 13 13 15 16 17 18 19 19 20 20 20 21 23 25 27 28 29 31 31 32 32 33 33 33 34 34 35 35 35 35 36 36 36 36 36 36 36 36 37
10 11 11 12 13 14 15 16 18 18 19 19 20 21 21 23 25 27 28 29 31 32 33 34 34 34 35 35 36 36 36 36 36 37 37 37 38 38 38 38 38 38 38
12 12 12 13 14 15 16 17 18 19 19 19 20 21 23 25 27 28 30 31 32 34 35 35 35 36 36 36 37 37 37 37 37 38 38 38 39 39 39 39 39 39 39
14 14 14 14 15 15 16 17 18 19 20 20 21 22 25 27 28 30 32 34 35 36 37 37 37 38 38 38 37 37 37 37 37 38 38 38 38 38 39 39 39 39 39
14 15 15 15 16 16 17 18 19 20 21 21 22 24 26 28 30 33 35 36 37 38 39 39 39 39 39 39 38 37 37 36 36 37 37 37 37 38 38 38 38 39 39
15 16 16 16 17 18 18 19 20 21 22 23 24 25 27 30 32 34 36 37 38 39 40 41 41 41 40 39 38 37 36 36 36 36 36 36 36 37 37 37 38 38 38
17 17 17 17 18 19 20 20 21 23 24 24 25 27 29 31 33 35 37 39 40 41 42 42 42 41 40 38 37 36 35 35 35 35 35 35 35 36 36 37 38 39 39
18 18 18 18 19 20 21 22 23 24 25 26 27 29 31 33 35 37 39 40 42 43 43 43 43 41 40 38 37 36 35 35 35 35 35 35 35 35 35 36 37 38 39
19 19 19 20 21 22 23 24 24 25 26 27 29 30 33 35 37 39 41 42 43 45 45 44 43 41 40 38 37 36 35 35 35 34 34 34 34 34 35 35 36 37 38
20 20 21 21 22 23 24 25 26 27 28 29 31 32 34 37 39 40 42 44 45 45 46 44 43 41 39 38 37 36 36 35 34 34 33 33 33 34 35 35 35 36 37
22 22 23 23 24 25 26 27 28 29 31 32 33 34 37 39 41 43 44 46 46 46 45 44 43 40 39 38 37 36 36 35 34 33 33 33 33 33 34 34 35 35 37
24 24 25 25 26 27 28 29 30 32 33 35 35 37 39 41 42 44 46 47 47 46 46 44 42 40 39 38 37 37 36 35 34 33 33 33 33 32 32 33 33 34 35
25 26 26 27 27 28 29 31 32 34 35 37 37 38 40 42 44 45 47 47 47 46 45 43 41 40 38 37 36 36 36 35 34 33 32 31 31 30 30 31 31 32 33
27 27 28 28 29 30 31 32 34 36 37 38 39 40 41 43 45 46 47 48 48 47 45 43 41 40 39 37 36 35 35 34 33 32 31 30 29 28 27 28 28 28 29
28 29 30 31 31 32 34 35 37 38 39 40 41 42 44 45 45 46 48 48 48 46 44 42 41 40 39 38 37 35 34 33 32 31 30 29 27 26 26 26 26 26 26
31 31 32 33 33 35 36 38 39 40 41 42 44 45 45 45 45 47 48 48 47 45 44 42 41 40 39 38 36 35 33 32 31 29 28 26 26 25 24 24 23 22 22
33 34 34 35 36 37 39 39 40 42 44 45 46 46 46 46 47 48 48 47 46 44 43 41 40 39 38 36 34 33 32 31 29 28 27 26 25 24 23 22 21 20 20

GEFSMW_500_meanwind_102.txt.gz
Wind_Speed
5 4 3 5 5 4 3 2 1 3 3 5 6 6 7 8 8 8 9 10 11 11 12 13 14 15 16 17 18 19 21 22 22 22 23 24 24 25 26 26 27 27 27
6 5 5 5 5 4 3 2 0 2 3 4 5 6 7 7 8 9 9 10 10 11 12 13 14 15 16 17 18 19 20 21 22 23 23 24 25 26 26 27 27 28 28
6 6 7 5 4 3 2 1 0 1 3 4 5 6 7 7 8 8 9 10 11 11 12 14 15 16 17 17 18 19 20 21 22 23 24 25 26 26 27 28 28 28 29
7 7 7 5 4 3 3 2 1 2 3 4 5 6 7 7 8 9 10 11 12 13 14 15 16 17 17 18 19 20 20 21 22 23 23 24 25 26 27 28 29 29 30
6 7 6 5 4 3 3 3 3 3 4 4 5 6 7 8 8 9 10 11 12 14 15 16 17 18 19 20 20 21 22 22 23 23 24 24 25 26 27 28 28 29 30
6 6 5 4 3 3 3 4 4 4 4 5 6 6 7 8 9 10 11 13 14 15 16 18 19 20 21 22 23 23 23 23 24 25 25 26 26 26 27 28 29 29 30
5 5 4 3 2 3 3 3 3 4 5 6 7 7 8 9 10 11 12 14 15 17 18 20 21 22 23 24 24 25 25 25 26 26 27 27 28 28 28 28 29 30 31
4 4 3 2 2 2 3 3 4 4 5 6 7 8 9 10 11 12 14 15 17 19 21 22 23 24 24 25 25 26 27 27 28 29 29 30 30 30 30 30 31 31 32
3 3 2 2 2 2 3 3 4 5 6 7 8 9 10 11 12 14 15 17 19 21 23 24 25 25 26 26 27 28 28 28 29 30 31 31 32 32 32 32 33 33 33
3 3 2 2 2 3 3 4 5 6 7 8 9 10 11 12 14 15 17 19 21 23 25 26 27 27 28 29 29 30 30 30 31 31 31 32 33 33 34 34 35 35 35
3 2 2 2 3 3 4 5 6 7 8 9 10 11 12 14 15 17 19 21 23 25 27 28 29 30 30 31 32 32 32 32 32 32 32 33 33 34 35 35 36 37 37
2 2 2 3 4 5 6 7 8 8 9 10 11 13 14 15 17 18 21 23 25 26 28 30 31 32 33 33 34 34 34 34 34 34 34 34 34 34 35 35 36 37 38
3 3 4 5 6 7 8 8 9 9 11 12 13 15 16 17 19 21 23 25 26 28 30 31 33 34 34 35 35 35 35 35 35 35 35 35 34 34 34 35 35 36 37
5 6 6 7 8 8 9 10 10 11 13 14 16 17 18 20 21 23 25 27 29 30 32 33 34 35 36 37 37 37 36 36 36 36 35 34 34 33 33 34 34 35 35
7 8 8 9 9 10 11 12 13 14 15 17 18 19 21 22 24 25 27 29 30 32 33 35 36 37 38 38 38 38 37 37 36 36 35 34 33 33 33 33 33 34 34
8 9 10 11 12 12 13 14 15 16 17 19 20 21 23 25 26 28 29 30 32 33 35 36 38 39 40 40 40 39 39 37 36 35 34 33 33 33 33 33 33 33 33
10 11 12 14 14 15 15 16 17 18 19 21 22 24 25 27 28 29 31 32 33 34 36 38 39 40 41 41 41 40 39 37 36 35 34 33 33 33 33 32 32 33 33
12 13 14 15 16 17 18 19 20 21 22 23 24 25 27 28 29 31 32 34 35 36 37 39 40 42 42 42 41 40 39 37 36 35 34 33 33 33 33 32 32 33 33
14 14 15 16 18 19 20 21 22 23 24 26 26 27 29 30 32 33 34 35 37 38 39 40 42 42 43 42 41 40 38 37 36 35 34 34 33 33 33 32 32 32 33
17 17 17 18 20 21 22 23 23 25 26 27 28 29 31 32 34 35 35 37 38 39 40 41 42 43 43 42 41 40 38 37 36 35 35 34 34 33 33 32 32 32 32
19 19 20 20 22 23 24 25 26 27 28 29 30 32 33 34 35 36 37 39 39 40 41 42 42 43 43 42 41 39 38 36 36 35 35 34 34 33 32 32 31 31 31
20 21 22 23 24 25 26 27 28 29 30 31 32 33 35 36 37 38 39 40 40 41 42 42 42 43 43 42 40 39 38 36 36 35 34 34 33 32 32 31 30 30 29
23 24 25 25 26 27 28 29 30 31 32 32 33 35 36 37 38 40 41 41 41 42 43 43 43 43 43 42 40 39 38 36 35 35 34 33 32 31 31 30 30 29 28
24 26 27 28 29 29 30 31 32 33 34 35 36 37 38 39 40 41 42 42 42 43 43 44 44 43 43 42 41 39 38 36 35 35 34 32 32 31 31 30 29 28 28
27 28 29 29 30 31 32 33 34 35 36 37 38 39 40 40 41 42 43 43 44 44 44 44 44 44 43 42 42 40 38 36 35 35 33 32 32 31 30 29 28 28 27
29 30 30 31 32 33 34 35 36 37 38 39 40 41 41 42 43 44 44 44 45 45 45 45 45 44 43 43 42 40 38 37 36 34 33 32 31 31 30 28 28 27 27

GEFSMW_500_meanwind_108.txt.gz
Wind_Speed
5 8 10 13 14 13 12 11 11 9 8 6 4 4 3 3 4 5 5 6 7 8 8 9 9 10 11 12 13 14 15 16 17 18 19 19 20 21 22 22 23 23 24
5 8 10 11 12 12 11 10 10 8 7 5 4 3 3 3 3 4 4 5 6 6 7 7 8 10 11 12 14 15 16 17 17 18 19 20 21 21 22 23 24 24 25
7 8 9 10 11 11 10 9 8 7 6 5 4 3 2 2 2 2 3 4 5 6 6 7 8 10 12 13 14 15 16 17 18 19 20 21 21 22 22 23 24 25 25
6 7 8 10 10 9 9 8 7 6 6 5 4 3 2 1 0 1 2 4 5 6 7 8 10 11 13 14 15 16 17 18 19 20 20 21 22 23 23 24 24 25 26
5 6 8 10 10 9 8 7 6 5 5 5 4 3 2 1 0 1 2 4 5 7 8 9 11 13 14 15 16 17 18 19 19 20 21 22 23 23 24 25 25 26 27
4 5 7 9 8 8 8 7 6 6 5 4 3 2 1 0 0 1 3 4 6 8 9 11 12 14 16 17 18 18 19 20 21 21 21 22 23 24 25 26 27 28 28
4 5 7 8 8 8 7 7 6 6 5 4 3 2 1 0 1 2 4 5 7 9 10 12 14 15 17 18 19 19 20 21 22 22 23 23 24 24 25 27 28 29 30
4 5 6 7 7 7 7 6 6 5 5 4 3 2 1 1 2 3 5 6 8 9 11 13 15 17 18 19 20 21 21 22 23 24 25 25 25 26 26 27 28 29 31
5 6 6 7 7 7 7 6 6 6 5 4 3 2 2 2 3 4 6 7 9 10 12 14 16 17 19 20 21 22 23 24 25 26 26 27 27 28 28 28 29 29 30
6 7 7 7 7 7 7 6 6 5 4 4 3 3 3 4 4 6 7 9 11 13 15 17 18 19 20 21 23 24 25 26 27 28 28 28 29 29 29 30 30 30 30
7 7 8 8 7 7 7 7 6 6 5 5 5 5 5 6 7 8 10 12 14 15 17 19 20 21 22 23 24 26 27 29 29 30 30 30 30 30 30 31 31 31 30
9 9 9 9 8 8 7 7 7 7 7 7 7 7 7 8 9 11 13 14 16 17 19 20 22 23 24 25 27 28 30 31 31 31 32 32 32 32 32 32 32 32 32
11 11 11 11 10 10 9 9 9 9 9 9 9 9 10 11 12 13 15 17 18 19 21 22 24 25 27 28 29 30 31 32 33 33 33 33 33 33 33 33 32 32 32
12 13 13 13 12 12 12 11 11 11 11 12 12 12 13 14 15 16 17 19 20 22 23 24 26 27 29 30 31 32 33 34 34 35 35 34 34 34 34 34 33 33 33
15 14 14 14 14 14 13 13 13 13 13 14 14 14 15 16 17 18 19 21 23 24 25 27 28 29 30 31 32 33 34 35 36 36 36 36 35 35 35 35 34 34 34
16 16 15 14 15 15 15 14 15 15 16 16 16 17 18 19 20 21 22 23 25 26 28 29 30 31 32 33 34 34 35 36 37 37 37 37 36 36 36 36 35 34 34
16 16 16 16 16 16 17 17 17 18 18 19 20 20 21 22 22 23 25 26 27 29 30 31 32 33 33 34 35 36 37 37 38 38 38 38 37 37 36 36 35 35 34
18 18 18 18 18 18 18 19 19 20 20 21 22 23 24 25 25 26 28 29 30 31 31 32 34 34 35 35 36 38 38 38 39 39 39 38 38 37 36 35 35 35 35
20 20 20 20 20 20 21 21 21 21 22 23 24 25 26 27 28 29 30 31 32 33 33 35 36 36 36 37 38 39 39 39 40 41 40 39 38 37 37 36 35 35 35
22 22 22 22 22 22 22 22 23 23 24 25 25 27 28 29 30 31 32 33 34 35 36 37 37 38 38 39 39 40 40 41 41 41 41 40 38 38 37 36 36 35 35
22 22 23 23 24 24 24 24 24 25 26 27 28 29 30 31 32 33 34 35 36 37 37 38 39 39 40 40 41 41 41 42 42 42 41 40 40 39 38 38 37 36 35
24 24 24 24 25 25 24 25 26 27 28 29 30 31 32 33 34 35 36 37 38 38 39 40 40 41 42 42 43 43 43 43 43 42 42 41 41 40 39 38 37 36 36
25 25 26 26 26 25 26 27 28 28 29 30 31 33 34 35 36 38 38 39 40 40 41 42 42 43 44 44 44 44 44 44 44 43 43 42 42 41 40 39 38 37 36
25 27 27 26 27 27 27 29 30 30 31 33 34 35 36 37 39 40 41 42 42 43 44 43 44 45 45 46 46 46 46 46 45 44 44 43 42 41 40 39 38 37 36
26 27 28 27 28 28 29 30 31 33 34 35 36 38 39 40 41 42 43 44 44 45 45 45 46 47 47 47 48 48 47 47 46 46 45 44 43 41 40 39 38 37 37
27 27 28 29 30 31 32 32 34 35 35 37 39 40 41 43 44 45 45 45 46 46 47 48 49 49 49 49 49 49 49 48 48 47 46 44 43 42 40 39 38 38 37

GEFSMW_500_meanwind_114.txt.gz
Wind_Speed
3 6 10 13 16 17 17 18 18 18 16 13 11 10 9 9 8 7 6 4 3 3 2 2 3 3 4 5 6 7 8 9 10 11 12 12 13 14 15 16 17 18 19
2 5 8 12 14 15 16 17 18 17 15 12 11 10 8 8 7 6 5 4 3 2 2 2 2 2 4 5 6 7 8 9 10 11 12 13 14 15 16 17 18 19 20
4 5 6 9 12 15 17 17 17 16 14 12 11 11 9 7 7 5 4 3 3 2 1 1 2 3 4 5 7 8 9 10 11 11 12 13 14 15 16 17 18 19 21
2 5 6 7 11 15 15 15 15 14 13 12 11 10 9 8 7 6 4 3 2 1 0 1 2 3 5 6 8 9 10 10 11 11 12 13 14 15 15 17 18 19 21
2 3 5 6 10 12 13 13 13 13 12 12 11 10 9 8 7 6 4 3 2 1 0 1 2 3 5 7 8 9 10 11 12 12 13 14 15 16 16 17 18 19 20
2 3 4 6 9 10 11 12 12 11 11 11 11 10 9 8 8 6 5 3 2 1 1 2 3 4 6 8 9 10 11 12 12 13 14 15 16 17 17 18 19 20 21
2 4 5 6 8 10 10 11 11 11 11 11 10 10 9 9 8 6 5 4 3 2 2 3 5 6 8 9 10 11 12 13 14 15 15 16 17 18 19 20 21 22 23
2 3 5 6 8 9 10 10 10 10 11 11 10 10 9 9 8 6 5 4 4 4 5 6 7 8 9 10 11 12 13 14 16 16 17 18 19 20 21 22 22 23 24
3 4 5 6 8 9 9 10 10 10 10 10 10 10 9 8 8 7 7 6 6 7 8 9 10 11 11 12 13 14 15 17 18 18 19 20 21 22 23 23 23 24 25
4 4 5 7 8 8 9 10 10 10 10 10 10 10 10 9 9 9 9 9 9 10 10 11 12 13 13 14 15 16 17 19 20 21 22 22 23 24 24 24 25 25 26
6 6 7 7 8 9 9 10 10 11 11 11 11 11 11 11 11 11 12 12 12 13 13 13 14 15 16 17 18 19 20 21 22 23 23 24 25 25 25 26 26 26 27
8 8 8 9 9 10 10 10 11 12 12 12 13 13 13 13 13 14 14 14 15 15 16 16 17 18 19 19 20 21 22 23 24 25 25 26 27 27 27 28 28 28 28
10 9 10 10 11 11 12 12 13 13 14 14 14 15 15 16 16 17 17 18 18 19 19 20 20 21 21 22 23 24 25 25 26 26 27 28 28 29 30 30 30 30 30
11 11 11 12 12 12 13 14 14 15 16 16 17 17 18 19 19 20 20 21 21 22 22 23 23 24 24 25 25 26 26 27 27 28 29 29 30 31 31 31 32 32 31
13 13 13 13 14 14 15 16 16 17 18 19 20 20 21 21 22 22 23 23 24 24 25 25 26 26 27 27 27 28 28 29 29 30 30 31 32 32 33 33 33 33 33
15 15 15 15 16 17 17 18 19 19 20 21 22 22 23 23 24 25 25 26 26 27 27 28 28 28 28 29 29 29 30 31 31 31 32 33 33 34 34 35 35 35 35
16 16 16 17 17 18 19 20 21 22 22 23 24 25 25 26 26 27 28 28 29 29 29 30 30 30 30 30 31 31 32 32 33 33 34 34 35 35 36 36 36 36 36
18 18 18 18 19 20 21 22 23 24 25 26 26 27 28 28 29 29 29 30 30 30 30 30 31 31 32 32 32 33 33 34 34 35 36 36 37 37 37 37 38 38 38
20 20 20 21 22 22 23 25 25 26 27 28 29 30 30 30 30 31 31 32 31 31 31 32 32 32 33 33 34 34 35 35 36 37 38 38 38 39 39 39 39 39 39
22 22 23 24 25 26 27 27 27 28 30 31 32 32 32 32 32 33 33 33 32 32 33 33 33 34 35 35 36 37 37 37 38 38 39 40 40 41 41 41 40 40 40
24 24 25 26 27 28 28 28 28 30 31 32 33 33 33 33 34 34 34 34 34 34 35 35 35 36 37 38 39 39 40 40 40 40 42 42 42 43 43 42 42 42 42
25 26 27 28 28 29 29 30 30 31 32 33 33 33 34 35 35 34 35 35 36 37 37 37 37 38 39 40 41 42 42 42 42 42 44 44 44 44 44 44 44 44 43
26 27 28 29 30 30 30 32 32 33 33 34 34 34 35 35 36 36 37 38 39 39 39 40 41 42 42 43 43 44 44 44 44 45 46 46 46 46 46 45 45 45 45
28 29 29 29 30 31 31 32 33 34 35 35 35 35 36 37 37 38 38 39 40 41 42 43 44 45 45 45 45 45 45 46 46 47 48 48 48 48 47 47 47 47 46
31 31 31 32 32 33 33 34 35 36 36 36 36 36 37 38 39 39 40 41 42 43 44 45 46 46 46 46 47 48 48 49 50 50 50 50 50 50 49 49 49 48 48
31 32 33 33 33 34 34 35 36 36 37 37 38 38 39 40 41 41 42 43 44 45 46 47 48 48 48 49 50 51 51 52 53 53 53 52 52 51 51 51 50 50 49

GEFSMW_500_meanwind_120.txt.gz
Wind_Speed
11 8 8 10 11 12 13 16 17 17 16 15 14 13 12 11 10 9 8 7 6 6 5 3 1 0 1 2 2 3 4 5 6 6 7 8 8 9 10 10 11 12 13
9 6 5 7 8 11 13 14 15 16 15 14 13 12 11 10 9 8 8 7 6 5 3 2 1 0 1 2 3 3 4 5 6 7 7 8 8 9 10 11 11 12 13
8 4 4 6 7 9 12 13 13 14 14 14 12 11 10 8 8 7 8 7 5 4 4 3 1 0 1 2 3 4 5 6 7 7 8 9 9 9 10 11 12 13 14
7 4 2 4 5 7 11 13 13 14 14 13 12 10 8 8 8 7 7 7 5 5 4 2 1 0 2 3 3 4 6 7 8 8 9 10 11 11 11 12 13 14 15
6 4 0 2 3 6 9 11 13 13 13 12 11 10 9 9 8 8 7 7 6 6 4 2 1 1 2 3 4 5 7 7 8 9 10 11 12 12 13 13 14 14 15
6 4 1 1 3 5 7 9 11 12 12 12 12 12 11 10 9 8 7 7 6 5 4 2 1 2 3 4 5 6 7 8 9 10 11 12 13 14 15 15 16 16 16
5 4 2 1 2 4 7 8 9 11 12 12 11 12 11 10 9 8 7 7 5 5 3 3 3 3 4 5 6 7 8 9 10 12 13 14 15 16 16 17 17 18 18
4 3 2 0 2 4 6 7 8 10 11 11 10 10 10 10 9 8 8 7 6 5 5 5 5 5 6 7 8 9 10 11 13 14 15 16 17 18 18 19 19 19 20
5 3 1 1 2 4 5 6 7 8 9 10 10 10 10 10 10 9 8 8 7 7 7 7 7 8 9 10 11 12 13 14 15 16 17 19 19 20 21 21 21 21 21
5 4 2 2 3 4 5 6 7 8 8 9 10 10 10 10 10 10 9 9 9 9 9 10 10 11 12 13 14 14 16 17 18 19 20 21 21 22 22 23 23 23 23
6 5 4 4 4 4 5 7 7 8 8 8 9 10 11 11 11 11 11 11 11 11 12 13 14 15 15 16 17 18 19 20 21 22 23 23 23 23 24 24 24 25 25
8 7 6 6 6 6 6 7 7 8 8 9 10 11 11 12 12 13 13 13 14 14 15 16 17 18 18 19 20 21 22 23 24 24 25 25 25 25 26 26 26 26 26
10 9 9 8 8 8 8 9 9 9 10 10 11 12 13 14 14 15 15 16 17 17 18 19 20 20 21 22 23 24 25 26 26 26 27 27 26 26 27 27 28 28 28
12 11 11 10 10 10 11 11 12 12 12 13 13 14 15 16 17 17 18 19 20 20 21 22 23 23 24 25 26 27 27 28 28 28 28 28 28 28 28 29 29 30 30
13 13 12 12 12 12 13 13 14 14 15 15 16 16 17 17 18 19 20 21 22 23 24 25 25 26 27 28 28 29 29 30 30 30 30 30 30 30 30 31 31 31 32
14 15 14 13 13 14 14 15 15 16 17 17 18 18 19 19 20 21 22 23 24 25 26 27 27 28 29 30 30 31 31 31 31 32 32 32 32 32 33 33 33 33 34
17 16 16 15 15 15 16 17 17 18 18 19 20 21 22 22 23 23 24 25 26 27 28 29 29 30 31 32 32 33 33 33 33 33 33 33 34 34 34 35 35 36 36
18 18 17 17 18 18 18 18 19 19 19 21 22 23 24 24 25 26 27 28 29 30 30 31 32 33 33 34 34 35 35 35 35 35 35 35 36 37 37 37 37 37 37
20 20 19 19 19 19 20 20 20 21 22 23 24 25 26 26 27 27 28 29 31 31 33 34 34 34 34 35 36 37 36 36 36 37 37 38 38 38 39 39 39 38 38
20 20 21 21 20 20 21 22 23 23 24 25 26 28 29 29 29 29 30 31 31 32 33 34 34 35 36 36 37 37 38 38 39 39 39 39 39 39 40 40 40 39 40
21 22 23 23 23 23 23 24 24 25 26 27 27 28 29 30 30 31 31 33 33 33 33 34 36 36 36 37 37 38 40 41 41 40 40 40 40 41 41 41 41 42 42
23 23 24 24 25 25 26 25 25 26 27 28 30 31 31 32 32 32 33 34 35 35 36 37 37 38 38 39 39 40 40 41 42 42 42 42 42 42 42 43 44 44 45
25 25 25 26 26 27 27 28 28 29 30 31 31 32 33 34 34 34 34 35 36 38 38 39 39 39 40 40 40 41 42 43 44 44 45 45 44 45 45 46 47 47 47
26 27 27 28 28 28 29 30 31 32 32 32 33 33 34 35 36 35 35 37 38 38 39 40 41 41 42 42 43 44 45 45 46 46 46 47 48 48 48 49 50 49 50
28 28 29 30 30 30 31 31 32 33 34 35 35 36 36 37 37 37 37 38 39 40 41 42 44 44 45 46 46 47 48 49 49 50 50 50 51 51 52 52 51 51 51
29 29 29 30 30 31 32 33 35 36 36 37 37 37 38 39 38 38 38 38 39 41 42 43 45 47 48 49 49 50 51 51 52 52 52 52 53 53 54 54 54 53 53